Time,TemperatureF,DewpointF,PressureIn,WindDirection,WindDirectionDegrees,WindSpeedMPH,WindSpeedGustMPH,Humidity,HourlyPrecipIn,Conditions,Clouds,dailyrainin,SoftwareType,DateUTC
2013-04-07 00:00:00,62.3,40.7,29.54,West,262,6.0,14.0,45,0.00,,---,0.00,VWS V14.01,2013-04-07 05:00:00,
2013-04-07 00:01:00,62.1,40.5,29.54,SW,221,9.0,14.0,45,0.00,,---,0.00,VWS V14.01,2013-04-07 05:01:00,
2013-04-07 00:03:00,61.8,41.4,29.54,WNW,282,4.0,13.0,47,0.00,,---,0.00,VWS V14.01,2013-04-07 05:03:00,
2013-04-07 00:04:00,61.5,41.7,29.54,West,274,5.0,12.0,48,0.00,,---,0.00,VWS V14.01,2013-04-07 05:04:00,
2013-04-07 00:06:00,61.2,41.9,29.54,West,278,11.0,12.0,49,0.00,,---,0.00,VWS V14.01,2013-04-07 05:06:00,
2013-04-07 00:09:00,60.9,42.2,29.54,West,274,2.0,10.0,50,0.00,,---,0.00,VWS V14.01,2013-04-07 05:09:00,
2013-04-07 00:12:00,60.7,42.0,29.54,West,276,9.0,22.0,50,0.00,,---,0.00,VWS V14.01,2013-04-07 05:12:00,
2013-04-07 00:13:00,60.7,42.0,29.54,SSE,162,6.0,12.0,50,0.00,,---,0.00,VWS V14.01,2013-04-07 05:13:00,
2013-04-07 00:15:00,60.7,42.0,29.55,West,271,10.0,14.0,50,0.00,,---,0.00,VWS V14.01,2013-04-07 05:15:00,
2013-04-07 00:17:00,60.7,42.0,29.55,WNW,293,5.0,12.0,50,0.00,,---,0.00,VWS V14.01,2013-04-07 05:17:00,
2013-04-07 00:18:00,60.7,42.0,29.55,West,266,6.0,13.0,50,0.00,,---,0.00,VWS V14.01,2013-04-07 05:18:00,
2013-04-07 00:21:00,60.5,41.8,29.55,WSW,237,10.0,10.0,50,0.00,,---,0.00,VWS V14.01,2013-04-07 05:21:00,
2013-04-07 00:26:00,59.9,43.7,29.55,WSW,248,9.0,27.0,55,0.01,,---,0.01,VWS V14.01,2013-04-07 05:26:00,
2013-04-07 00:27:00,59.8,44.1,29.55,West,263,17.0,22.0,56,0.01,,---,0.01,VWS V14.01,2013-04-07 05:27:00,
2013-04-07 00:28:00,59.3,45.0,29.55,SSW,200,5.0,18.0,59,0.01,,---,0.01,VWS V14.01,2013-04-07 05:28:00,
2013-04-07 00:33:00,56.7,47.4,29.55,WSW,243,3.0,11.0,71,0.02,,---,0.02,VWS V14.01,2013-04-07 05:33:00,
2013-04-07 00:34:00,56.6,47.3,29.55,West,278,10.0,14.0,71,0.02,,---,0.02,VWS V14.01,2013-04-07 05:34:00,
2013-04-07 00:35:00,55.9,47.4,29.55,WSW,256,5.0,12.0,73,0.02,,---,0.02,VWS V14.01,2013-04-07 05:35:00,
2013-04-07 00:39:00,55.0,47.2,29.55,WSW,254,6.0,9.0,75,0.02,,---,0.02,VWS V14.01,2013-04-07 05:39:00,
2013-04-07 00:40:00,54.8,47.0,29.55,SSW,195,7.0,13.0,75,0.02,,---,0.02,VWS V14.01,2013-04-07 05:40:00,
2013-04-07 00:41:00,54.7,46.9,29.55,West,278,4.0,11.0,75,0.02,,---,0.02,VWS V14.01,2013-04-07 05:41:00,
2013-04-07 00:43:00,54.5,46.8,29.55,West,281,6.0,15.0,75,0.03,,---,0.03,VWS V14.01,2013-04-07 05:43:00,
2013-04-07 00:45:00,54.5,46.8,29.55,WSW,243,2.0,3.0,75,0.03,,---,0.03,VWS V14.01,2013-04-07 05:45:00,
2013-04-07 00:47:00,54.4,46.7,29.55,SW,234,4.0,14.0,75,0.03,,---,0.03,VWS V14.01,2013-04-07 05:47:00,
2013-04-07 00:50:00,54.4,46.7,29.55,South,189,5.0,6.0,75,0.03,,---,0.03,VWS V14.01,2013-04-07 05:50:00,
2013-04-07 00:51:00,54.5,46.8,29.55,SW,221,10.0,10.0,75,0.03,,---,0.03,VWS V14.01,2013-04-07 05:51:00,
2013-04-07 00:53:00,54.5,46.8,29.55,WSW,258,3.0,6.0,75,0.03,,---,0.03,VWS V14.01,2013-04-07 05:53:00,
2013-04-07 00:56:00,54.5,46.8,29.55,West,259,3.0,5.0,75,0.03,,---,0.03,VWS V14.01,2013-04-07 05:56:00,
2013-04-07 00:57:00,54.7,46.9,29.55,WNW,293,5.0,5.0,75,0.03,,---,0.03,VWS V14.01,2013-04-07 05:57:00,
2013-04-07 00:58:00,54.7,46.9,29.55,West,267,6.0,9.0,75,0.03,,---,0.03,VWS V14.01,2013-04-07 05:58:00,
2013-04-07 01:01:00,54.7,46.9,29.54,WSW,245,2.0,5.0,75,0.03,,---,0.03,VWS V14.01,2013-04-07 06:01:00,
2013-04-07 01:02:00,54.7,46.9,29.54,West,276,5.0,13.0,75,0.03,,---,0.03,VWS V14.01,2013-04-07 06:02:00,
2013-04-07 01:06:00,54.8,47.0,29.54,SW,231,0.0,3.0,75,0.03,,---,0.03,VWS V14.01,2013-04-07 06:06:00,
2013-04-07 01:07:00,54.8,47.4,29.54,WSW,252,3.0,5.0,76,0.03,,---,0.03,VWS V14.01,2013-04-07 06:07:00,
2013-04-07 01:08:00,54.8,47.4,29.54,WSW,251,4.0,7.0,76,0.03,,---,0.03,VWS V14.01,2013-04-07 06:08:00,
2013-04-07 01:11:00,54.8,47.4,29.54,SSW,197,4.0,10.0,76,0.03,,---,0.03,VWS V14.01,2013-04-07 06:11:00,
2013-04-07 01:13:00,54.8,47.0,29.54,WNW,289,5.0,6.0,75,0.03,,---,0.03,VWS V14.01,2013-04-07 06:13:00,
2013-04-07 01:16:00,54.8,47.0,29.53,West,271,10.0,10.0,75,0.03,,---,0.03,VWS V14.01,2013-04-07 06:16:00,
2013-04-07 01:17:00,54.8,47.0,29.53,West,275,6.0,7.0,75,0.03,,---,0.03,VWS V14.01,2013-04-07 06:17:00,
2013-04-07 01:18:00,54.8,46.7,29.53,South,190,4.0,6.0,74,0.03,,---,0.03,VWS V14.01,2013-04-07 06:18:00,
2013-04-07 01:22:00,55.0,46.9,29.53,WSW,255,9.0,9.0,74,0.03,,---,0.03,VWS V14.01,2013-04-07 06:22:00,
2013-04-07 01:24:00,55.0,46.9,29.53,WSW,256,3.0,3.0,74,0.03,,---,0.03,VWS V14.01,2013-04-07 06:24:00,
2013-04-07 01:25:00,55.0,46.9,29.53,West,266,2.0,4.0,74,0.03,,---,0.03,VWS V14.01,2013-04-07 06:25:00,
2013-04-07 01:28:00,55.0,46.5,29.53,SW,222,5.0,5.0,73,0.02,,---,0.03,VWS V14.01,2013-04-07 06:28:00,
2013-04-07 01:30:00,55.0,46.5,29.52,SW,235,3.0,4.0,73,0.01,,---,0.03,VWS V14.01,2013-04-07 06:30:00,
2013-04-07 01:32:00,55.1,46.2,29.52,SE,139,0.0,4.0,72,0.01,,---,0.03,VWS V14.01,2013-04-07 06:32:00,
2013-04-07 01:33:00,55.1,46.2,29.52,WSW,238,3.0,5.0,72,0.01,,---,0.03,VWS V14.01,2013-04-07 06:33:00,
2013-04-07 01:35:00,55.0,46.2,29.52,SSE,157,2.0,3.0,72,0.01,,---,0.03,VWS V14.01,2013-04-07 06:35:00,
2013-04-07 01:36:00,55.0,46.2,29.52,SSW,202,4.0,13.0,72,0.01,,---,0.03,VWS V14.01,2013-04-07 06:36:00,
2013-04-07 01:37:00,55.0,46.2,29.52,SW,236,3.0,6.0,72,0.01,,---,0.03,VWS V14.01,2013-04-07 06:37:00,
2013-04-07 01:40:00,55.0,45.8,29.52,WNW,283,2.0,4.0,71,0.01,,---,0.03,VWS V14.01,2013-04-07 06:40:00,
2013-04-07 01:41:00,55.0,45.8,29.52,SW,230,4.0,5.0,71,0.01,,---,0.03,VWS V14.01,2013-04-07 06:41:00,
2013-04-07 01:42:00,55.0,45.8,29.52,West,269,3.0,5.0,71,0.00,,---,0.03,VWS V14.01,2013-04-07 06:42:00,
2013-04-07 01:44:00,55.1,45.5,29.52,WNW,289,4.0,12.0,70,0.00,,---,0.03,VWS V14.01,2013-04-07 06:44:00,
2013-04-07 01:45:00,55.1,45.5,29.52,SW,231,7.0,12.0,70,0.00,,---,0.03,VWS V14.01,2013-04-07 06:45:00,
2013-04-07 01:46:00,55.1,45.1,29.52,West,276,5.0,8.0,69,0.00,,---,0.03,VWS V14.01,2013-04-07 06:46:00,
2013-04-07 01:49:00,55.3,45.3,29.52,WSW,248,7.0,7.0,69,0.00,,---,0.03,VWS V14.01,2013-04-07 06:49:00,
2013-04-07 01:52:00,55.3,44.9,29.52,SW,229,6.0,7.0,68,0.00,,---,0.03,VWS V14.01,2013-04-07 06:52:00,
2013-04-07 01:53:00,55.4,45.0,29.52,WSW,253,2.0,6.0,68,0.00,,---,0.03,VWS V14.01,2013-04-07 06:53:00,
2013-04-07 01:55:00,55.3,44.9,29.52,SW,215,6.0,11.0,68,0.00,,---,0.03,VWS V14.01,2013-04-07 06:55:00,
2013-04-07 01:57:00,55.3,44.9,29.52,West,278,6.0,7.0,68,0.00,,---,0.03,VWS V14.01,2013-04-07 06:57:00,
2013-04-07 01:58:00,55.3,44.9,29.52,SW,221,4.0,6.0,68,0.00,,---,0.03,VWS V14.01,2013-04-07 06:58:00,
2013-04-07 02:02:00,55.4,45.0,29.51,West,263,6.0,6.0,68,0.00,,---,0.03,VWS V14.01,2013-04-07 07:02:00,
2013-04-07 02:03:00,55.4,45.0,29.51,West,272,3.0,5.0,68,0.00,,---,0.03,VWS V14.01,2013-04-07 07:03:00,
2013-04-07 02:04:00,55.3,44.9,29.51,West,259,3.0,7.0,68,0.00,,---,0.03,VWS V14.01,2013-04-07 07:04:00,
2013-04-07 02:05:00,55.3,44.9,29.51,WSW,244,3.0,5.0,68,0.00,,---,0.03,VWS V14.01,2013-04-07 07:05:00,
2013-04-07 02:08:00,55.3,44.9,29.51,WSW,243,7.0,10.0,68,0.00,,---,0.03,VWS V14.01,2013-04-07 07:08:00,
2013-04-07 02:10:00,55.3,44.9,29.51,WNW,292,5.0,8.0,68,0.00,,---,0.03,VWS V14.01,2013-04-07 07:10:00,
2013-04-07 02:11:00,55.3,44.9,29.51,WSW,252,3.0,8.0,68,0.00,,---,0.03,VWS V14.01,2013-04-07 07:11:00,
2013-04-07 02:14:00,55.4,45.0,29.52,SSW,210,4.0,7.0,68,0.00,,---,0.03,VWS V14.01,2013-04-07 07:14:00,
2013-04-07 02:16:00,55.4,45.0,29.52,SW,229,4.0,9.0,68,0.00,,---,0.03,VWS V14.01,2013-04-07 07:16:00,
2013-04-07 02:17:00,55.4,45.0,29.52,West,278,10.0,10.0,68,0.00,,---,0.03,VWS V14.01,2013-04-07 07:17:00,
2013-04-07 02:18:00,55.4,45.0,29.52,West,267,4.0,5.0,68,0.00,,---,0.03,VWS V14.01,2013-04-07 07:18:00,
2013-04-07 02:19:00,55.4,45.0,29.52,WSW,248,10.0,10.0,68,0.00,,---,0.03,VWS V14.01,2013-04-07 07:19:00,
2013-04-07 02:22:00,55.4,45.0,29.52,West,271,3.0,5.0,68,0.00,,---,0.03,VWS V14.01,2013-04-07 07:22:00,
2013-04-07 02:24:00,55.4,45.0,29.52,WNW,296,5.0,10.0,68,0.00,,---,0.03,VWS V14.01,2013-04-07 07:24:00,
2013-04-07 02:25:00,55.3,44.9,29.52,West,273,5.0,9.0,68,0.00,,---,0.03,VWS V14.01,2013-04-07 07:25:00,
2013-04-07 02:28:00,55.3,44.9,29.52,West,264,5.0,9.0,68,0.00,,---,0.03,VWS V14.01,2013-04-07 07:28:00,
2013-04-07 02:29:00,55.1,44.7,29.52,West,271,12.0,12.0,68,0.00,,---,0.03,VWS V14.01,2013-04-07 07:29:00,
2013-04-07 02:30:00,55.1,44.7,29.52,WNW,295,3.0,12.0,68,0.00,,---,0.03,VWS V14.01,2013-04-07 07:30:00,
2013-04-07 02:33:00,55.0,45.0,29.52,WNW,292,5.0,7.0,69,0.00,,---,0.03,VWS V14.01,2013-04-07 07:33:00,
2013-04-07 02:34:00,55.0,45.0,29.52,SW,235,6.0,15.0,69,0.00,,---,0.03,VWS V14.01,2013-04-07 07:34:00,
2013-04-07 02:35:00,55.0,45.0,29.52,SW,234,7.0,15.0,69,0.00,,---,0.03,VWS V14.01,2013-04-07 07:35:00,
2013-04-07 02:36:00,55.0,45.0,29.52,South,185,4.0,7.0,69,0.00,,---,0.03,VWS V14.01,2013-04-07 07:36:00,
2013-04-07 02:39:00,54.8,45.2,29.52,WSW,252,5.0,7.0,70,0.00,,---,0.03,VWS V14.01,2013-04-07 07:39:00,
2013-04-07 02:40:00,54.8,45.2,29.52,West,269,7.0,9.0,70,0.00,,---,0.03,VWS V14.01,2013-04-07 07:40:00,
2013-04-07 02:41:00,54.8,45.2,29.52,SSW,198,9.0,10.0,70,0.00,,---,0.03,VWS V14.01,2013-04-07 07:41:00,
2013-04-07 02:42:00,54.8,45.2,29.52,West,261,7.0,10.0,70,0.00,,---,0.03,VWS V14.01,2013-04-07 07:42:00,
2013-04-07 02:44:00,54.8,45.2,29.52,SW,229,4.0,7.0,70,0.00,,---,0.03,VWS V14.01,2013-04-07 07:44:00,
2013-04-07 02:47:00,54.7,45.5,29.52,SW,223,11.0,12.0,71,0.00,,---,0.03,VWS V14.01,2013-04-07 07:47:00,
2013-04-07 02:48:00,54.7,45.5,29.52,West,270,3.0,11.0,71,0.00,,---,0.03,VWS V14.01,2013-04-07 07:48:00,
2013-04-07 02:50:00,54.7,45.5,29.52,WSW,252,3.0,4.0,71,0.00,,---,0.03,VWS V14.01,2013-04-07 07:50:00,
2013-04-07 02:52:00,54.5,45.3,29.52,West,273,4.0,4.0,71,0.00,,---,0.03,VWS V14.01,2013-04-07 07:52:00,
2013-04-07 02:53:00,54.5,45.7,29.52,WSW,257,7.0,7.0,72,0.00,,---,0.03,VWS V14.01,2013-04-07 07:53:00,
2013-04-07 02:57:00,54.2,45.8,29.52,West,271,7.0,14.0,73,0.00,,---,0.03,VWS V14.01,2013-04-07 07:57:00,
2013-04-07 02:58:00,54.1,45.7,29.53,West,267,4.0,4.0,73,0.00,,---,0.03,VWS V14.01,2013-04-07 07:58:00,
2013-04-07 03:00:00,54.1,46.0,29.53,West,259,6.0,10.0,74,0.00,,---,0.03,VWS V14.01,2013-04-07 08:00:00,
2013-04-07 03:04:00,53.8,46.1,29.53,SW,221,4.0,9.0,75,0.00,,---,0.03,VWS V14.01,2013-04-07 08:04:00,
2013-04-07 03:05:00,53.8,46.1,29.53,WSW,253,4.0,8.0,75,0.00,,---,0.03,VWS V14.01,2013-04-07 08:05:00,
2013-04-07 03:07:00,53.6,45.9,29.53,WSW,251,13.0,13.0,75,0.00,,---,0.03,VWS V14.01,2013-04-07 08:07:00,
2013-04-07 03:10:00,53.5,46.5,29.53,SW,236,5.0,11.0,77,0.00,,---,0.03,VWS V14.01,2013-04-07 08:10:00,
2013-04-07 03:12:00,53.3,46.3,29.53,WSW,257,2.0,8.0,77,0.00,,---,0.03,VWS V14.01,2013-04-07 08:12:00,
2013-04-07 03:13:00,53.3,46.3,29.53,WNW,297,3.0,7.0,77,0.00,,---,0.03,VWS V14.01,2013-04-07 08:13:00,
2013-04-07 03:15:00,53.2,46.5,29.54,West,265,7.0,9.0,78,0.00,,---,0.03,VWS V14.01,2013-04-07 08:15:00,
2013-04-07 03:16:00,53.2,46.5,29.54,West,278,11.0,11.0,78,0.00,,---,0.03,VWS V14.01,2013-04-07 08:16:00,
2013-04-07 03:19:00,53.1,46.8,29.54,WSW,238,10.0,10.0,79,0.00,,---,0.03,VWS V14.01,2013-04-07 08:19:00,
2013-04-07 03:21:00,52.9,46.6,29.54,WNW,293,3.0,5.0,79,0.00,,---,0.03,VWS V14.01,2013-04-07 08:21:00,
2013-04-07 03:22:00,52.9,46.9,29.54,WNW,295,6.0,6.0,80,0.00,,---,0.03,VWS V14.01,2013-04-07 08:22:00,
2013-04-07 03:23:00,52.8,46.8,29.54,WNW,288,5.0,11.0,80,0.00,,---,0.03,VWS V14.01,2013-04-07 08:23:00,
2013-04-07 03:25:00,52.6,46.6,29.54,WSW,253,6.0,12.0,80,0.00,,---,0.03,VWS V14.01,2013-04-07 08:25:00,
2013-04-07 03:27:00,52.5,46.8,29.54,SW,236,2.0,6.0,81,0.00,,---,0.03,VWS V14.01,2013-04-07 08:27:00,
2013-04-07 03:28:00,52.5,46.8,29.54,WSW,237,3.0,11.0,81,0.00,,---,0.03,VWS V14.01,2013-04-07 08:28:00,
2013-04-07 03:29:00,52.5,46.8,29.55,WSW,257,3.0,5.0,81,0.00,,---,0.03,VWS V14.01,2013-04-07 08:29:00,
2013-04-07 03:34:00,52.2,46.9,29.55,WSW,258,2.0,3.0,82,0.00,,---,0.03,VWS V14.01,2013-04-07 08:34:00,
2013-04-07 03:35:00,52.0,46.7,29.55,West,266,3.0,7.0,82,0.00,,---,0.03,VWS V14.01,2013-04-07 08:35:00,
2013-04-07 03:36:00,52.0,46.7,29.55,West,274,1.0,3.0,82,0.00,,---,0.03,VWS V14.01,2013-04-07 08:36:00,
2013-04-07 03:39:00,51.7,46.7,29.55,West,266,3.0,6.0,83,0.00,,---,0.03,VWS V14.01,2013-04-07 08:39:00,
2013-04-07 03:40:00,51.6,46.6,29.55,WNW,298,3.0,4.0,83,0.00,,---,0.03,VWS V14.01,2013-04-07 08:40:00,
2013-04-07 03:41:00,51.6,46.6,29.55,SSW,213,2.0,6.0,83,0.00,,---,0.03,VWS V14.01,2013-04-07 08:41:00,
2013-04-07 03:44:00,51.1,46.1,29.56,West,277,3.0,15.0,83,0.00,,---,0.03,VWS V14.01,2013-04-07 08:44:00,
2013-04-07 03:46:00,50.8,46.2,29.56,NW,304,3.0,4.0,84,0.00,,---,0.03,VWS V14.01,2013-04-07 08:46:00,
2013-04-07 03:47:00,50.7,46.0,29.56,WNW,288,4.0,4.0,84,0.00,,---,0.03,VWS V14.01,2013-04-07 08:47:00,
2013-04-07 03:48:00,50.7,46.0,29.56,West,276,7.0,9.0,84,0.00,,---,0.03,VWS V14.01,2013-04-07 08:48:00,
2013-04-07 03:51:00,50.2,45.6,29.56,WSW,253,4.0,6.0,84,0.00,,---,0.03,VWS V14.01,2013-04-07 08:51:00,
2013-04-07 03:53:00,49.9,45.3,29.56,WNW,282,5.0,12.0,84,0.00,,---,0.03,VWS V14.01,2013-04-07 08:53:00,
2013-04-07 03:54:00,49.8,45.2,29.56,WNW,295,3.0,6.0,84,0.00,,---,0.03,VWS V14.01,2013-04-07 08:54:00,
2013-04-07 03:56:00,49.8,44.8,29.56,West,276,10.0,10.0,83,0.00,,---,0.03,VWS V14.01,2013-04-07 08:56:00,
2013-04-07 03:59:00,49.6,44.7,29.58,WNW,282,4.0,7.0,83,0.00,,---,0.03,VWS V14.01,2013-04-07 08:59:00,
2013-04-07 04:00:00,49.5,44.6,29.58,WSW,243,5.0,9.0,83,0.00,,---,0.03,VWS V14.01,2013-04-07 09:00:00,
2013-04-07 04:01:00,49.5,44.9,29.58,WSW,248,6.0,6.0,84,0.00,,---,0.03,VWS V14.01,2013-04-07 09:01:00,
2013-04-07 04:04:00,49.4,44.8,29.58,WSW,256,7.0,7.0,84,0.00,,---,0.03,VWS V14.01,2013-04-07 09:04:00,
2013-04-07 04:06:00,49.4,44.8,29.58,WSW,253,4.0,6.0,84,0.00,,---,0.03,VWS V14.01,2013-04-07 09:06:00,
2013-04-07 04:07:00,49.4,44.8,29.58,West,262,6.0,14.0,84,0.00,,---,0.03,VWS V14.01,2013-04-07 09:07:00,
2013-04-07 04:08:00,49.4,44.8,29.58,WSW,248,6.0,6.0,84,0.00,,---,0.03,VWS V14.01,2013-04-07 09:08:00,
2013-04-07 04:10:00,49.2,44.6,29.58,SE,138,4.0,9.0,84,0.00,,---,0.03,VWS V14.01,2013-04-07 09:10:00,
2013-04-07 04:12:00,49.2,44.6,29.58,West,269,7.0,13.0,84,0.00,,---,0.03,VWS V14.01,2013-04-07 09:12:00,
2013-04-07 04:16:00,49.1,44.5,29.59,West,277,3.0,7.0,84,0.00,,---,0.03,VWS V14.01,2013-04-07 09:16:00,
2013-04-07 04:17:00,48.9,44.6,29.59,WSW,258,9.0,14.0,85,0.00,,---,0.03,VWS V14.01,2013-04-07 09:17:00,
2013-04-07 04:18:00,48.9,44.6,29.59,West,271,7.0,11.0,85,0.00,,---,0.03,VWS V14.01,2013-04-07 09:18:00,
2013-04-07 04:21:00,48.9,44.6,29.59,West,259,5.0,6.0,85,0.00,,---,0.03,VWS V14.01,2013-04-07 09:21:00,
2013-04-07 04:22:00,48.9,44.6,29.59,WSW,245,5.0,5.0,85,0.00,,---,0.03,VWS V14.01,2013-04-07 09:22:00,
2013-04-07 04:23:00,48.9,44.6,29.59,SW,217,2.0,3.0,85,0.00,,---,0.03,VWS V14.01,2013-04-07 09:23:00,
2013-04-07 04:24:00,48.9,44.6,29.59,West,261,4.0,5.0,85,0.00,,---,0.03,VWS V14.01,2013-04-07 09:24:00,
2013-04-07 04:28:00,48.8,44.5,29.59,West,259,5.0,11.0,85,0.00,,---,0.03,VWS V14.01,2013-04-07 09:28:00,
2013-04-07 04:30:00,48.8,44.5,29.59,WSW,238,4.0,7.0,85,0.00,,---,0.03,VWS V14.01,2013-04-07 09:30:00,
2013-04-07 04:34:00,48.8,44.5,29.59,West,275,5.0,11.0,85,0.00,,---,0.03,VWS V14.01,2013-04-07 09:34:00,
2013-04-07 04:35:00,48.8,44.5,29.59,WSW,240,2.0,3.0,85,0.00,,---,0.03,VWS V14.01,2013-04-07 09:35:00,
2013-04-07 04:37:00,48.8,44.5,29.59,WNW,295,5.0,10.0,85,0.00,,---,0.03,VWS V14.01,2013-04-07 09:37:00,
2013-04-07 04:40:00,48.8,44.5,29.59,West,271,3.0,9.0,85,0.00,,---,0.03,VWS V14.01,2013-04-07 09:40:00,
2013-04-07 04:41:00,48.8,44.5,29.59,West,265,4.0,5.0,85,0.00,,---,0.03,VWS V14.01,2013-04-07 09:41:00,
2013-04-07 04:42:00,48.8,44.5,29.59,WSW,252,2.0,4.0,85,0.00,,---,0.03,VWS V14.01,2013-04-07 09:42:00,
2013-04-07 04:43:00,48.8,44.5,29.59,West,279,3.0,3.0,85,0.00,,---,0.03,VWS V14.01,2013-04-07 09:43:00,
2013-04-07 04:45:00,48.8,44.5,29.60,West,281,4.0,9.0,85,0.00,,---,0.03,VWS V14.01,2013-04-07 09:45:00,
2013-04-07 04:47:00,48.8,44.5,29.60,WNW,293,3.0,4.0,85,0.00,,---,0.03,VWS V14.01,2013-04-07 09:47:00,
2013-04-07 04:48:00,48.8,44.5,29.60,WSW,252,4.0,4.0,85,0.00,,---,0.03,VWS V14.01,2013-04-07 09:48:00,
2013-04-07 04:51:00,48.8,44.5,29.60,SSW,203,4.0,5.0,85,0.00,,---,0.03,VWS V14.01,2013-04-07 09:51:00,
2013-04-07 04:53:00,48.8,44.5,29.60,West,266,6.0,6.0,85,0.00,,---,0.03,VWS V14.01,2013-04-07 09:53:00,
2013-04-07 04:54:00,48.8,44.5,29.60,WNW,288,3.0,4.0,85,0.00,,---,0.03,VWS V14.01,2013-04-07 09:54:00,
2013-04-07 04:56:00,48.8,44.5,29.60,West,272,2.0,4.0,85,0.00,,---,0.03,VWS V14.01,2013-04-07 09:56:00,
2013-04-07 04:58:00,48.8,44.5,29.60,West,274,5.0,7.0,85,0.00,,---,0.03,VWS V14.01,2013-04-07 09:58:00,
2013-04-07 04:59:00,48.8,44.5,29.62,West,274,3.0,4.0,85,0.00,,---,0.03,VWS V14.01,2013-04-07 09:59:00,
2013-04-07 05:01:00,48.8,44.5,29.62,West,269,5.0,6.0,85,0.00,,---,0.03,VWS V14.01,2013-04-07 10:01:00,
2013-04-07 05:02:00,48.8,44.5,29.62,WNW,302,2.0,5.0,85,0.00,,---,0.03,VWS V14.01,2013-04-07 10:02:00,
2013-04-07 05:04:00,48.8,44.5,29.62,West,259,4.0,4.0,85,0.00,,---,0.03,VWS V14.01,2013-04-07 10:04:00,
2013-04-07 05:05:00,48.8,44.5,29.62,West,276,7.0,7.0,85,0.00,,---,0.03,VWS V14.01,2013-04-07 10:05:00,
2013-04-07 05:07:00,48.8,44.5,29.62,NW,304,0.0,2.0,85,0.00,,---,0.03,VWS V14.01,2013-04-07 10:07:00,
2013-04-07 05:08:00,48.8,44.5,29.62,NW,304,0.0,2.0,85,0.00,,---,0.03,VWS V14.01,2013-04-07 10:08:00,
2013-04-07 05:09:00,48.6,44.3,29.62,WNW,285,3.0,4.0,85,0.00,,---,0.03,VWS V14.01,2013-04-07 10:09:00,
2013-04-07 05:11:00,48.6,44.3,29.62,NW,304,2.0,4.0,85,0.00,,---,0.03,VWS V14.01,2013-04-07 10:11:00,
2013-04-07 05:12:00,48.6,44.6,29.62,WNW,297,2.0,3.0,86,0.00,,---,0.03,VWS V14.01,2013-04-07 10:12:00,
2013-04-07 05:14:00,48.6,44.6,29.62,WNW,294,3.0,3.0,86,0.00,,---,0.03,VWS V14.01,2013-04-07 10:14:00,
2013-04-07 05:15:00,48.6,44.6,29.62,NW,314,2.0,3.0,86,0.00,,---,0.03,VWS V14.01,2013-04-07 10:15:00,
2013-04-07 05:17:00,48.6,44.3,29.62,West,265,2.0,7.0,85,0.00,,---,0.03,VWS V14.01,2013-04-07 10:17:00,
2013-04-07 05:19:00,48.5,44.2,29.62,West,265,0.0,2.0,85,0.00,,---,0.03,VWS V14.01,2013-04-07 10:19:00,
2013-04-07 05:22:00,48.3,43.7,29.62,West,269,5.0,8.0,84,0.00,,---,0.03,VWS V14.01,2013-04-07 10:22:00,
2013-04-07 05:23:00,48.3,43.7,29.62,NW,312,1.0,1.0,84,0.00,,---,0.03,VWS V14.01,2013-04-07 10:23:00,
2013-04-07 05:24:00,48.2,43.6,29.62,West,276,3.0,4.0,84,0.00,,---,0.03,VWS V14.01,2013-04-07 10:24:00,
2013-04-07 05:26:00,48.2,43.6,29.62,West,281,1.0,2.0,84,0.00,,---,0.03,VWS V14.01,2013-04-07 10:26:00,
2013-04-07 05:27:00,48.0,43.4,29.62,West,281,4.0,5.0,84,0.00,,---,0.03,VWS V14.01,2013-04-07 10:27:00,
2013-04-07 05:29:00,48.0,43.4,29.64,West,264,4.0,4.0,84,0.00,,---,0.03,VWS V14.01,2013-04-07 10:29:00,
2013-04-07 05:30:00,48.0,43.4,29.64,WNW,290,3.0,5.0,84,0.00,,---,0.03,VWS V14.01,2013-04-07 10:30:00,
2013-04-07 05:33:00,48.0,43.4,29.64,WNW,297,1.0,4.0,84,0.00,,---,0.03,VWS V14.01,2013-04-07 10:33:00,
2013-04-07 05:34:00,48.0,43.4,29.64,NW,323,2.0,5.0,84,0.00,,---,0.03,VWS V14.01,2013-04-07 10:34:00,
2013-04-07 05:35:00,47.9,43.3,29.64,West,269,1.0,4.0,84,0.00,,---,0.03,VWS V14.01,2013-04-07 10:35:00,
2013-04-07 05:37:00,47.9,43.3,29.64,NW,324,8.0,8.0,84,0.00,,---,0.03,VWS V14.01,2013-04-07 10:37:00,
2013-04-07 05:40:00,47.9,43.3,29.64,West,265,3.0,3.0,84,0.00,,---,0.03,VWS V14.01,2013-04-07 10:40:00,
2013-04-07 05:42:00,47.9,43.3,29.64,West,259,3.0,6.0,84,0.00,,---,0.03,VWS V14.01,2013-04-07 10:42:00,
2013-04-07 05:43:00,47.9,43.0,29.64,NW,317,2.0,4.0,83,0.00,,---,0.03,VWS V14.01,2013-04-07 10:43:00,
2013-04-07 05:45:00,47.9,43.0,29.64,West,274,3.0,5.0,83,0.00,,---,0.03,VWS V14.01,2013-04-07 10:45:00,
2013-04-07 05:47:00,47.9,43.0,29.64,West,271,1.0,7.0,83,0.00,,---,0.03,VWS V14.01,2013-04-07 10:47:00,
2013-04-07 05:48:00,47.7,42.8,29.64,West,261,5.0,5.0,83,0.00,,---,0.03,VWS V14.01,2013-04-07 10:48:00,
2013-04-07 05:50:00,47.7,42.8,29.64,WSW,254,5.0,8.0,83,0.00,,---,0.03,VWS V14.01,2013-04-07 10:50:00,
2013-04-07 05:51:00,47.7,42.8,29.64,WSW,257,4.0,5.0,83,0.00,,---,0.03,VWS V14.01,2013-04-07 10:51:00,
2013-04-07 05:52:00,47.7,42.8,29.64,WSW,252,6.0,6.0,83,0.00,,---,0.03,VWS V14.01,2013-04-07 10:52:00,
2013-04-07 05:53:00,47.7,42.8,29.64,West,262,6.0,6.0,83,0.00,,---,0.03,VWS V14.01,2013-04-07 10:53:00,
2013-04-07 05:56:00,47.7,42.8,29.64,NW,321,5.0,11.0,83,0.00,,---,0.03,VWS V14.01,2013-04-07 10:56:00,
2013-04-07 05:58:00,47.7,42.8,29.64,West,274,10.0,10.0,83,0.00,,---,0.03,VWS V14.01,2013-04-07 10:58:00,
2013-04-07 05:59:00,47.7,42.8,29.64,West,269,4.0,10.0,83,0.00,,---,0.03,VWS V14.01,2013-04-07 10:59:00,
2013-04-07 06:02:00,47.7,42.8,29.64,West,269,2.0,2.0,83,0.00,,---,0.03,VWS V14.01,2013-04-07 11:02:00,
2013-04-07 06:03:00,47.7,42.8,29.64,WSW,256,6.0,6.0,83,0.00,,---,0.03,VWS V14.01,2013-04-07 11:03:00,
2013-04-07 06:04:00,47.7,42.8,29.64,WSW,245,6.0,9.0,83,0.00,,---,0.03,VWS V14.01,2013-04-07 11:04:00,
2013-04-07 06:06:00,47.6,42.7,29.64,WNW,301,0.0,3.0,83,0.00,,---,0.03,VWS V14.01,2013-04-07 11:06:00,
2013-04-07 06:09:00,47.6,42.7,29.64,WNW,289,3.0,4.0,83,0.00,,---,0.03,VWS V14.01,2013-04-07 11:09:00,
2013-04-07 06:10:00,47.6,42.7,29.64,SW,218,2.0,5.0,83,0.00,,---,0.03,VWS V14.01,2013-04-07 11:10:00,
2013-04-07 06:12:00,47.6,42.7,29.64,West,276,4.0,5.0,83,0.00,,---,0.03,VWS V14.01,2013-04-07 11:12:00,
2013-04-07 06:15:00,47.6,43.0,29.66,West,271,3.0,5.0,84,0.00,,---,0.03,VWS V14.01,2013-04-07 11:15:00,
2013-04-07 06:16:00,47.6,43.0,29.66,WSW,238,9.0,9.0,84,0.00,,---,0.03,VWS V14.01,2013-04-07 11:16:00,
2013-04-07 06:17:00,47.6,43.0,29.66,West,273,5.0,5.0,84,0.00,,---,0.03,VWS V14.01,2013-04-07 11:17:00,
2013-04-07 06:20:00,47.6,43.0,29.66,WSW,249,3.0,5.0,84,0.00,,---,0.03,VWS V14.01,2013-04-07 11:20:00,
2013-04-07 06:21:00,47.4,42.8,29.66,WSW,257,3.0,5.0,84,0.00,,---,0.03,VWS V14.01,2013-04-07 11:21:00,
2013-04-07 06:23:00,47.4,42.8,29.66,SW,229,2.0,7.0,84,0.00,,---,0.03,VWS V14.01,2013-04-07 11:23:00,
2013-04-07 06:25:00,47.4,42.8,29.66,WSW,246,1.0,3.0,84,0.00,,---,0.03,VWS V14.01,2013-04-07 11:25:00,
2013-04-07 06:26:00,47.4,42.8,29.66,WSW,246,0.0,2.0,84,0.00,,---,0.03,VWS V14.01,2013-04-07 11:26:00,
2013-04-07 06:27:00,47.4,42.8,29.66,West,269,5.0,6.0,84,0.00,,---,0.03,VWS V14.01,2013-04-07 11:27:00,
2013-04-07 06:28:00,47.4,42.8,29.66,West,259,4.0,6.0,84,0.00,,---,0.03,VWS V14.01,2013-04-07 11:28:00,
2013-04-07 06:31:00,47.4,42.8,29.67,West,275,6.0,6.0,84,0.00,,---,0.03,VWS V14.01,2013-04-07 11:31:00,
2013-04-07 06:32:00,47.4,42.8,29.67,WNW,283,3.0,6.0,84,0.00,,---,0.03,VWS V14.01,2013-04-07 11:32:00,
2013-04-07 06:34:00,47.4,42.8,29.67,West,264,0.0,3.0,84,0.00,,---,0.03,VWS V14.01,2013-04-07 11:34:00,
2013-04-07 06:37:00,47.3,42.7,29.67,West,269,5.0,7.0,84,0.00,,---,0.03,VWS V14.01,2013-04-07 11:37:00,
2013-04-07 06:38:00,47.3,42.7,29.67,SW,232,2.0,6.0,84,0.00,,---,0.03,VWS V14.01,2013-04-07 11:38:00,
2013-04-07 06:42:00,47.3,42.7,29.67,West,259,2.0,4.0,84,0.00,,---,0.03,VWS V14.01,2013-04-07 11:42:00,
2013-04-07 06:44:00,47.3,42.7,29.68,West,273,3.0,6.0,84,0.00,,---,0.03,VWS V14.01,2013-04-07 11:44:00,
2013-04-07 06:45:00,47.3,42.7,29.68,West,276,6.0,6.0,84,0.00,,---,0.03,VWS V14.01,2013-04-07 11:45:00,
2013-04-07 06:49:00,47.3,42.7,29.68,West,271,5.0,10.0,84,0.00,,---,0.03,VWS V14.01,2013-04-07 11:49:00,
2013-04-07 06:51:00,47.3,42.4,29.68,WSW,256,4.0,5.0,83,0.00,,---,0.03,VWS V14.01,2013-04-07 11:51:00,
2013-04-07 06:54:00,47.3,42.4,29.68,SW,224,1.0,6.0,83,0.00,,---,0.03,VWS V14.01,2013-04-07 11:54:00,
2013-04-07 06:56:00,47.3,42.4,29.68,NW,314,4.0,7.0,83,0.00,,---,0.03,VWS V14.01,2013-04-07 11:56:00,
2013-04-07 06:57:00,47.3,42.4,29.68,WNW,299,3.0,3.0,83,0.00,,---,0.03,VWS V14.01,2013-04-07 11:57:00,
2013-04-07 07:00:00,47.3,42.4,29.68,West,266,1.0,3.0,83,0.00,,---,0.03,VWS V14.01,2013-04-07 12:00:00,
2013-04-07 07:02:00,47.3,42.4,29.68,WNW,283,2.0,5.0,83,0.00,,---,0.03,VWS V14.01,2013-04-07 12:02:00,
2013-04-07 07:04:00,47.3,42.4,29.68,West,270,1.0,4.0,83,0.00,,---,0.03,VWS V14.01,2013-04-07 12:04:00,
2013-04-07 07:06:00,47.3,42.4,29.68,West,259,4.0,4.0,83,0.00,,---,0.03,VWS V14.01,2013-04-07 12:06:00,
2013-04-07 07:07:00,47.3,42.4,29.68,WNW,286,4.0,5.0,83,0.00,,---,0.03,VWS V14.01,2013-04-07 12:07:00,
2013-04-07 07:10:00,47.3,42.4,29.68,West,266,1.0,2.0,83,0.00,,---,0.03,VWS V14.01,2013-04-07 12:10:00,
2013-04-07 07:11:00,47.3,42.4,29.68,West,276,2.0,2.0,83,0.00,,---,0.03,VWS V14.01,2013-04-07 12:11:00,
2013-04-07 07:12:00,47.3,42.4,29.68,SW,234,3.0,6.0,83,0.00,,---,0.03,VWS V14.01,2013-04-07 12:12:00,
2013-04-07 07:13:00,47.3,42.4,29.68,West,261,6.0,6.0,83,0.00,,---,0.03,VWS V14.01,2013-04-07 12:13:00,
2013-04-07 07:16:00,47.3,42.4,29.70,SW,226,5.0,5.0,83,0.00,,---,0.03,VWS V14.01,2013-04-07 12:16:00,
2013-04-07 07:17:00,47.3,42.1,29.70,WSW,257,0.0,6.0,82,0.00,,---,0.03,VWS V14.01,2013-04-07 12:17:00,
2013-04-07 07:18:00,47.3,42.1,29.70,WSW,245,4.0,4.0,82,0.00,,---,0.03,VWS V14.01,2013-04-07 12:18:00,
2013-04-07 07:19:00,47.3,42.1,29.70,SW,232,2.0,5.0,82,0.00,,---,0.03,VWS V14.01,2013-04-07 12:19:00,
2013-04-07 07:23:00,47.4,42.2,29.70,SSW,195,4.0,6.0,82,0.00,,---,0.03,VWS V14.01,2013-04-07 12:23:00,
2013-04-07 07:24:00,47.4,42.2,29.70,WNW,303,3.0,4.0,82,0.00,,---,0.03,VWS V14.01,2013-04-07 12:24:00,
2013-04-07 07:25:00,47.4,42.2,29.70,WNW,300,4.0,7.0,82,0.00,,---,0.03,VWS V14.01,2013-04-07 12:25:00,
2013-04-07 07:29:00,47.4,42.2,29.71,WNW,300,2.0,2.0,82,0.00,,---,0.03,VWS V14.01,2013-04-07 12:29:00,
2013-04-07 07:30:00,47.3,42.1,29.71,WSW,239,2.0,5.0,82,0.00,,---,0.03,VWS V14.01,2013-04-07 12:30:00,
2013-04-07 07:32:00,47.3,42.1,29.71,WNW,296,4.0,5.0,82,0.00,,---,0.03,VWS V14.01,2013-04-07 12:32:00,
2013-04-07 07:35:00,47.3,42.1,29.71,WSW,241,2.0,3.0,82,0.00,,---,0.03,VWS V14.01,2013-04-07 12:35:00,
2013-04-07 07:37:00,47.3,42.1,29.71,WNW,297,3.0,9.0,82,0.00,,---,0.03,VWS V14.01,2013-04-07 12:37:00,
2013-04-07 07:40:00,47.3,42.1,29.71,West,272,3.0,5.0,82,0.00,,---,0.03,VWS V14.01,2013-04-07 12:40:00,
2013-04-07 07:41:00,47.3,42.1,29.71,WNW,283,3.0,6.0,82,0.00,,---,0.03,VWS V14.01,2013-04-07 12:41:00,
2013-04-07 07:42:00,47.1,41.9,29.71,WNW,283,2.0,3.0,82,0.00,,---,0.03,VWS V14.01,2013-04-07 12:42:00,
2013-04-07 07:43:00,47.1,41.9,29.71,NW,323,3.0,3.0,82,0.00,,---,0.03,VWS V14.01,2013-04-07 12:43:00,
2013-04-07 07:46:00,47.1,41.9,29.72,NW,322,3.0,4.0,82,0.00,,---,0.03,VWS V14.01,2013-04-07 12:46:00,
2013-04-07 07:47:00,47.1,42.2,29.72,West,260,2.0,3.0,83,0.00,,---,0.03,VWS V14.01,2013-04-07 12:47:00,
2013-04-07 07:48:00,47.1,42.2,29.72,West,269,1.0,3.0,83,0.00,,---,0.03,VWS V14.01,2013-04-07 12:48:00,
2013-04-07 07:52:00,47.1,41.9,29.72,West,272,2.0,4.0,82,0.00,,---,0.03,VWS V14.01,2013-04-07 12:52:00,
2013-04-07 07:53:00,47.1,41.9,29.72,West,271,2.0,5.0,82,0.00,,---,0.03,VWS V14.01,2013-04-07 12:53:00,
2013-04-07 07:54:00,47.1,41.9,29.72,West,277,1.0,3.0,82,0.00,,---,0.03,VWS V14.01,2013-04-07 12:54:00,
2013-04-07 07:57:00,47.1,41.9,29.72,West,271,4.0,4.0,82,0.00,,---,0.03,VWS V14.01,2013-04-07 12:57:00,
2013-04-07 07:58:00,47.1,41.9,29.72,West,281,4.0,5.0,82,0.00,,---,0.03,VWS V14.01,2013-04-07 12:58:00,
2013-04-07 07:59:00,47.1,41.9,29.72,WNW,296,2.0,4.0,82,0.00,,---,0.03,VWS V14.01,2013-04-07 12:59:00,
2013-04-07 08:00:00,47.1,41.9,29.72,WNW,287,3.0,5.0,82,0.00,,---,0.03,VWS V14.01,2013-04-07 13:00:00,
2013-04-07 08:02:00,47.1,41.9,29.72,WNW,299,4.0,4.0,82,0.00,,---,0.03,VWS V14.01,2013-04-07 13:02:00,
2013-04-07 08:05:00,47.3,41.8,29.72,West,264,5.0,7.0,81,0.00,,---,0.03,VWS V14.01,2013-04-07 13:05:00,
2013-04-07 08:06:00,47.3,41.8,29.72,West,262,6.0,6.0,81,0.00,,---,0.03,VWS V14.01,2013-04-07 13:06:00,
2013-04-07 08:07:00,47.3,41.8,29.72,WNW,283,4.0,6.0,81,0.00,,---,0.03,VWS V14.01,2013-04-07 13:07:00,
2013-04-07 08:08:00,47.3,41.8,29.72,WNW,301,3.0,3.0,81,0.00,,---,0.03,VWS V14.01,2013-04-07 13:08:00,
2013-04-07 08:11:00,47.3,41.5,29.72,SW,229,3.0,7.0,80,0.00,,---,0.03,VWS V14.01,2013-04-07 13:11:00,
2013-04-07 08:13:00,47.3,41.5,29.72,NW,319,6.0,6.0,80,0.00,,---,0.03,VWS V14.01,2013-04-07 13:13:00,
2013-04-07 08:14:00,47.3,41.1,29.74,NW,321,2.0,11.0,79,0.00,,---,0.03,VWS V14.01,2013-04-07 13:14:00,
2013-04-07 08:17:00,47.3,41.5,29.74,WSW,250,1.0,3.0,80,0.00,,---,0.03,VWS V14.01,2013-04-07 13:17:00,
2013-04-07 08:18:00,47.3,41.1,29.74,NW,323,4.0,4.0,79,0.00,,---,0.03,VWS V14.01,2013-04-07 13:18:00,
2013-04-07 08:19:00,47.3,41.1,29.74,West,281,2.0,7.0,79,0.00,,---,0.03,VWS V14.01,2013-04-07 13:19:00,
2013-04-07 08:23:00,47.3,41.1,29.74,West,259,2.0,6.0,79,0.00,,---,0.03,VWS V14.01,2013-04-07 13:23:00,
2013-04-07 08:24:00,47.3,41.1,29.74,WNW,293,4.0,4.0,79,0.00,,---,0.03,VWS V14.01,2013-04-07 13:24:00,
2013-04-07 08:25:00,47.3,40.8,29.74,WNW,300,5.0,7.0,78,0.00,,---,0.03,VWS V14.01,2013-04-07 13:25:00,
2013-04-07 08:29:00,47.3,41.1,29.74,NW,307,3.0,5.0,79,0.00,,---,0.03,VWS V14.01,2013-04-07 13:29:00,
2013-04-07 08:30:00,47.3,41.1,29.74,West,275,3.0,4.0,79,0.00,,---,0.03,VWS V14.01,2013-04-07 13:30:00,
2013-04-07 08:32:00,47.4,40.9,29.74,NW,325,4.0,9.0,78,0.00,,---,0.03,VWS V14.01,2013-04-07 13:32:00,
2013-04-07 08:34:00,47.4,40.9,29.74,WNW,285,3.0,5.0,78,0.00,,---,0.03,VWS V14.01,2013-04-07 13:34:00,
2013-04-07 08:35:00,47.4,40.9,29.74,NW,312,4.0,5.0,78,0.00,,---,0.03,VWS V14.01,2013-04-07 13:35:00,
2013-04-07 08:37:00,47.6,41.1,29.74,NW,309,1.0,2.0,78,0.00,,---,0.03,VWS V14.01,2013-04-07 13:37:00,
2013-04-07 08:40:00,47.7,41.2,29.74,NW,314,1.0,4.0,78,0.00,,---,0.03,VWS V14.01,2013-04-07 13:40:00,
2013-04-07 08:41:00,47.7,41.2,29.74,NW,323,2.0,5.0,78,0.00,,---,0.03,VWS V14.01,2013-04-07 13:41:00,
2013-04-07 08:42:00,47.7,41.2,29.74,WNW,294,2.0,7.0,78,0.00,,---,0.03,VWS V14.01,2013-04-07 13:42:00,
2013-04-07 08:46:00,48.0,41.2,29.75,WNW,283,3.0,3.0,77,0.00,,---,0.03,VWS V14.01,2013-04-07 13:46:00,
2013-04-07 08:47:00,48.0,41.2,29.75,WSW,242,2.0,3.0,77,0.00,,---,0.03,VWS V14.01,2013-04-07 13:47:00,
2013-04-07 08:48:00,48.2,41.3,29.75,WNW,293,2.0,4.0,77,0.00,,---,0.03,VWS V14.01,2013-04-07 13:48:00,
2013-04-07 08:52:00,48.5,41.3,29.75,West,269,1.0,3.0,76,0.00,,---,0.03,VWS V14.01,2013-04-07 13:52:00,
2013-04-07 08:53:00,48.5,41.3,29.75,WNW,283,3.0,8.0,76,0.00,,---,0.03,VWS V14.01,2013-04-07 13:53:00,
2013-04-07 08:55:00,48.6,41.0,29.75,NW,318,4.0,5.0,75,0.00,,---,0.03,VWS V14.01,2013-04-07 13:55:00,
2013-04-07 08:57:00,48.6,41.0,29.75,NW,325,6.0,6.0,75,0.00,,---,0.03,VWS V14.01,2013-04-07 13:57:00,
2013-04-07 08:58:00,48.8,41.2,29.75,WNW,282,3.0,4.0,75,0.00,,---,0.03,VWS V14.01,2013-04-07 13:58:00,
2013-04-07 09:00:00,48.8,41.2,29.75,NW,315,4.0,4.0,75,0.00,,---,0.03,VWS V14.01,2013-04-07 14:00:00,
2013-04-07 09:02:00,48.8,40.9,29.75,NW,319,2.0,3.0,74,0.00,,---,0.03,VWS V14.01,2013-04-07 14:02:00,
2013-04-07 09:03:00,48.9,41.3,29.75,NW,306,4.0,4.0,75,0.00,,---,0.03,VWS V14.01,2013-04-07 14:03:00,
2013-04-07 09:05:00,49.1,41.5,29.75,NW,312,5.0,5.0,75,0.00,,---,0.03,VWS V14.01,2013-04-07 14:05:00,
2013-04-07 09:06:00,49.2,41.3,29.75,WSW,245,4.0,7.0,74,0.00,,---,0.03,VWS V14.01,2013-04-07 14:06:00,
2013-04-07 09:08:00,49.4,41.5,29.75,NW,307,2.0,3.0,74,0.00,,---,0.03,VWS V14.01,2013-04-07 14:08:00,
2013-04-07 09:10:00,49.4,41.5,29.75,WNW,292,4.0,4.0,74,0.00,,---,0.03,VWS V14.01,2013-04-07 14:10:00,
2013-04-07 09:12:00,49.4,41.1,29.75,NW,317,3.0,6.0,73,0.00,,---,0.03,VWS V14.01,2013-04-07 14:12:00,
2013-04-07 09:13:00,49.4,41.1,29.75,WNW,296,4.0,8.0,73,0.00,,---,0.03,VWS V14.01,2013-04-07 14:13:00,
2013-04-07 09:15:00,49.4,41.1,29.75,WNW,302,1.0,5.0,73,0.00,,---,0.03,VWS V14.01,2013-04-07 14:15:00,
2013-04-07 09:18:00,49.4,40.8,29.75,NW,307,4.0,6.0,72,0.00,,---,0.03,VWS V14.01,2013-04-07 14:18:00,
2013-04-07 09:19:00,49.4,40.8,29.75,SSW,212,1.0,5.0,72,0.00,,---,0.03,VWS V14.01,2013-04-07 14:19:00,
2013-04-07 09:20:00,49.5,41.2,29.75,NW,313,3.0,4.0,73,0.00,,---,0.03,VWS V14.01,2013-04-07 14:20:00,
2013-04-07 09:21:00,49.5,41.2,29.75,WNW,295,4.0,4.0,73,0.00,,---,0.03,VWS V14.01,2013-04-07 14:21:00,
2013-04-07 09:23:00,49.8,41.5,29.75,NNW,333,5.0,7.0,73,0.00,,---,0.03,VWS V14.01,2013-04-07 14:23:00,
2013-04-07 09:25:00,49.6,41.0,29.75,WNW,288,3.0,8.0,72,0.00,,---,0.03,VWS V14.01,2013-04-07 14:25:00,
2013-04-07 09:27:00,49.6,41.7,29.75,WNW,300,4.0,7.0,74,0.00,,---,0.03,VWS V14.01,2013-04-07 14:27:00,
2013-04-07 09:28:00,49.5,41.2,29.75,WSW,257,4.0,6.0,73,0.00,,---,0.03,VWS V14.01,2013-04-07 14:28:00,
2013-04-07 09:30:00,49.5,41.2,29.76,West,271,0.0,5.0,73,0.00,,---,0.03,VWS V14.01,2013-04-07 14:30:00,
2013-04-07 09:32:00,49.5,41.6,29.76,NW,321,3.0,4.0,74,0.00,,---,0.03,VWS V14.01,2013-04-07 14:32:00,
2013-04-07 09:34:00,49.6,41.3,29.76,NW,307,2.0,4.0,73,0.00,,---,0.03,VWS V14.01,2013-04-07 14:34:00,
2013-04-07 09:37:00,49.8,41.9,29.76,WNW,286,3.0,5.0,74,0.00,,---,0.03,VWS V14.01,2013-04-07 14:37:00,
2013-04-07 09:39:00,50.1,41.8,29.76,NW,311,3.0,4.0,73,0.00,,---,0.03,VWS V14.01,2013-04-07 14:39:00,
2013-04-07 09:42:00,50.2,41.2,29.76,North,358,5.0,5.0,71,0.00,,---,0.03,VWS V14.01,2013-04-07 14:42:00,
2013-04-07 09:44:00,50.4,42.1,29.76,West,271,3.0,4.0,73,0.00,,---,0.03,VWS V14.01,2013-04-07 14:44:00,
2013-04-07 09:45:00,50.4,42.1,29.76,NNW,340,5.0,6.0,73,0.00,,---,0.03,VWS V14.01,2013-04-07 14:45:00,
2013-04-07 09:47:00,50.2,41.2,29.76,WNW,285,1.0,6.0,71,0.00,,---,0.03,VWS V14.01,2013-04-07 14:47:00,
2013-04-07 09:48:00,50.2,41.5,29.76,WNW,285,0.0,1.0,72,0.00,,---,0.03,VWS V14.01,2013-04-07 14:48:00,
2013-04-07 09:51:00,50.4,42.4,29.76,NW,322,3.0,4.0,74,0.00,,---,0.03,VWS V14.01,2013-04-07 14:51:00,
2013-04-07 09:52:00,50.4,41.4,29.76,WNW,287,5.0,9.0,71,0.00,,---,0.03,VWS V14.01,2013-04-07 14:52:00,
2013-04-07 09:53:00,50.4,41.0,29.76,NW,311,3.0,3.0,70,0.00,,---,0.03,VWS V14.01,2013-04-07 14:53:00,
2013-04-07 09:56:00,50.1,41.1,29.76,West,259,4.0,6.0,71,0.00,,---,0.03,VWS V14.01,2013-04-07 14:56:00,
2013-04-07 10:00:00,50.2,41.2,29.76,WSW,252,5.0,7.0,71,0.00,,---,0.03,VWS V14.01,2013-04-07 15:00:00,
2013-04-07 10:01:00,50.2,41.2,29.76,West,281,3.0,4.0,71,0.00,,---,0.03,VWS V14.01,2013-04-07 15:01:00,
2013-04-07 10:03:00,50.2,40.8,29.76,WNW,283,3.0,7.0,70,0.00,,---,0.03,VWS V14.01,2013-04-07 15:03:00,
2013-04-07 10:05:00,50.4,41.4,29.76,NW,314,2.0,4.0,71,0.00,,---,0.03,VWS V14.01,2013-04-07 15:05:00,
2013-04-07 10:06:00,50.5,41.5,29.76,SW,235,2.0,3.0,71,0.00,,---,0.03,VWS V14.01,2013-04-07 15:06:00,
2013-04-07 10:07:00,50.5,41.5,29.76,NW,307,4.0,5.0,71,0.00,,---,0.03,VWS V14.01,2013-04-07 15:07:00,
2013-04-07 10:10:00,50.8,41.8,29.76,West,276,4.0,4.0,71,0.00,,---,0.03,VWS V14.01,2013-04-07 15:10:00,
2013-04-07 10:12:00,51.0,40.8,29.76,NNW,328,5.0,5.0,68,0.00,,---,0.03,VWS V14.01,2013-04-07 15:12:00,
2013-04-07 10:15:00,51.0,40.8,29.77,NNW,328,6.0,6.0,68,0.00,,---,0.03,VWS V14.01,2013-04-07 15:15:00,
2013-04-07 10:17:00,51.0,40.4,29.77,North,358,3.0,4.0,67,0.00,,---,0.03,VWS V14.01,2013-04-07 15:17:00,
2013-04-07 10:23:00,51.3,40.7,29.77,NNW,327,5.0,6.0,67,0.00,,---,0.03,VWS V14.01,2013-04-07 15:23:00,
2013-04-07 10:27:00,51.4,40.4,29.77,NNW,330,4.0,9.0,66,0.00,,---,0.03,VWS V14.01,2013-04-07 15:27:00,
2013-04-07 10:28:00,51.4,40.0,29.77,West,278,3.0,4.0,65,0.00,,---,0.03,VWS V14.01,2013-04-07 15:28:00,
2013-04-07 10:29:00,51.4,40.0,29.78,NW,304,0.0,1.0,65,0.00,,---,0.03,VWS V14.01,2013-04-07 15:29:00,
2013-04-07 10:32:00,51.6,40.2,29.78,NW,315,3.0,7.0,65,0.00,,---,0.03,VWS V14.01,2013-04-07 15:32:00,
2013-04-07 10:34:00,51.6,40.2,29.78,WSW,253,3.0,7.0,65,0.00,,---,0.03,VWS V14.01,2013-04-07 15:34:00,
2013-04-07 10:35:00,51.6,39.8,29.78,NW,321,4.0,4.0,64,0.00,,---,0.03,VWS V14.01,2013-04-07 15:35:00,
2013-04-07 10:42:00,51.7,40.3,29.78,NW,315,4.0,6.0,65,0.00,,---,0.03,VWS V14.01,2013-04-07 15:42:00,
2013-04-07 10:43:00,51.7,39.9,29.78,North,358,4.0,4.0,64,0.00,,---,0.03,VWS V14.01,2013-04-07 15:43:00,
2013-04-07 10:45:00,51.7,38.7,29.78,NW,321,2.0,2.0,61,0.00,,---,0.03,VWS V14.01,2013-04-07 15:45:00,
2013-04-07 10:47:00,51.9,38.9,29.78,NW,312,3.0,3.0,61,0.00,,---,0.03,VWS V14.01,2013-04-07 15:47:00,
2013-04-07 10:48:00,51.9,38.9,29.78,NW,314,2.0,4.0,61,0.00,,---,0.03,VWS V14.01,2013-04-07 15:48:00,
2013-04-07 10:49:00,51.9,38.9,29.78,NW,310,2.0,2.0,61,0.00,,---,0.03,VWS V14.01,2013-04-07 15:49:00,
2013-04-07 10:51:00,52.0,39.8,29.78,WNW,300,2.0,6.0,63,0.00,,---,0.03,VWS V14.01,2013-04-07 15:51:00,
2013-04-07 10:53:00,52.0,39.8,29.78,NW,317,3.0,4.0,63,0.00,,---,0.03,VWS V14.01,2013-04-07 15:53:00,
2013-04-07 10:54:00,52.2,40.0,29.78,NW,309,4.0,5.0,63,0.00,,---,0.03,VWS V14.01,2013-04-07 15:54:00,
2013-04-07 10:57:00,52.3,38.8,29.78,WSW,252,6.0,6.0,60,0.00,,---,0.03,VWS V14.01,2013-04-07 15:57:00,
2013-04-07 10:58:00,52.3,38.8,29.78,NW,314,3.0,6.0,60,0.00,,---,0.03,VWS V14.01,2013-04-07 15:58:00,
2013-04-07 11:00:00,52.3,38.8,29.78,NW,312,1.0,4.0,60,0.00,,---,0.03,VWS V14.01,2013-04-07 16:00:00,
2013-04-07 11:02:00,52.5,39.9,29.78,WNW,297,1.0,3.0,62,0.00,,---,0.03,VWS V14.01,2013-04-07 16:02:00,
2013-04-07 11:06:00,52.9,39.0,29.78,NW,320,5.0,5.0,59,0.00,,---,0.03,VWS V14.01,2013-04-07 16:06:00,
2013-04-07 11:08:00,53.2,39.3,29.78,NNW,331,3.0,3.0,59,0.00,,---,0.03,VWS V14.01,2013-04-07 16:08:00,
2013-04-07 11:10:00,53.2,38.4,29.78,West,278,5.0,5.0,57,0.00,,---,0.03,VWS V14.01,2013-04-07 16:10:00,
2013-04-07 11:11:00,53.2,38.4,29.78,WNW,301,3.0,4.0,57,0.00,,---,0.03,VWS V14.01,2013-04-07 16:11:00,
2013-04-07 11:13:00,53.1,38.7,29.79,WNW,300,4.0,5.0,58,0.00,,---,0.03,VWS V14.01,2013-04-07 16:13:00,
2013-04-07 11:15:00,53.1,37.8,29.79,NW,314,4.0,4.0,56,0.00,,---,0.03,VWS V14.01,2013-04-07 16:15:00,
2013-04-07 11:17:00,53.1,38.7,29.79,NNW,347,2.0,4.0,58,0.00,,---,0.03,VWS V14.01,2013-04-07 16:17:00,
2013-04-07 11:19:00,53.2,38.4,29.79,WNW,294,3.0,3.0,57,0.00,,---,0.03,VWS V14.01,2013-04-07 16:19:00,
2013-04-07 11:21:00,53.5,40.0,29.79,West,259,1.0,1.0,60,0.00,,---,0.03,VWS V14.01,2013-04-07 16:21:00,
2013-04-07 11:22:00,53.6,39.6,29.79,WSW,252,4.0,4.0,59,0.00,,---,0.03,VWS V14.01,2013-04-07 16:22:00,
2013-04-07 11:23:00,53.6,38.3,29.79,West,270,2.0,4.0,56,0.00,,---,0.03,VWS V14.01,2013-04-07 16:23:00,
2013-04-07 11:26:00,54.1,39.2,29.79,WNW,291,2.0,2.0,57,0.00,,---,0.03,VWS V14.01,2013-04-07 16:26:00,
2013-04-07 11:28:00,54.2,39.8,29.79,NNW,342,3.0,5.0,58,0.00,,---,0.03,VWS V14.01,2013-04-07 16:28:00,
2013-04-07 11:29:00,54.2,38.9,29.79,WSW,257,4.0,4.0,56,0.00,,---,0.03,VWS V14.01,2013-04-07 16:29:00,
2013-04-07 11:33:00,54.4,39.0,29.79,NW,318,7.0,7.0,56,0.00,,---,0.03,VWS V14.01,2013-04-07 16:33:00,
2013-04-07 11:34:00,54.5,38.7,29.79,WNW,284,0.0,3.0,55,0.00,,---,0.03,VWS V14.01,2013-04-07 16:34:00,
2013-04-07 11:35:00,54.4,37.6,29.79,NNW,327,4.0,5.0,53,0.00,,---,0.03,VWS V14.01,2013-04-07 16:35:00,
2013-04-07 11:37:00,54.4,38.6,29.79,NW,309,3.0,5.0,55,0.00,,---,0.03,VWS V14.01,2013-04-07 16:37:00,
2013-04-07 11:38:00,54.2,38.4,29.79,NNW,329,3.0,5.0,55,0.00,,---,0.03,VWS V14.01,2013-04-07 16:38:00,
2013-04-07 11:42:00,54.4,39.5,29.79,WNW,300,2.0,4.0,57,0.00,,---,0.03,VWS V14.01,2013-04-07 16:42:00,
2013-04-07 11:43:00,54.4,40.0,29.79,NW,326,2.0,4.0,58,0.00,,---,0.03,VWS V14.01,2013-04-07 16:43:00,
2013-04-07 11:44:00,54.5,39.6,29.79,West,279,4.0,6.0,57,0.00,,---,0.03,VWS V14.01,2013-04-07 16:44:00,
2013-04-07 11:45:00,54.7,38.9,29.79,WNW,297,3.0,3.0,55,0.00,,---,0.03,VWS V14.01,2013-04-07 16:45:00,
2013-04-07 11:48:00,54.8,38.5,29.79,NW,320,1.0,5.0,54,0.00,,---,0.03,VWS V14.01,2013-04-07 16:48:00,
2013-04-07 11:49:00,55.0,38.2,29.79,West,272,3.0,4.0,53,0.00,,---,0.03,VWS V14.01,2013-04-07 16:49:00,
2013-04-07 11:51:00,55.1,38.8,29.79,WNW,283,3.0,3.0,54,0.00,,---,0.03,VWS V14.01,2013-04-07 16:51:00,
2013-04-07 11:53:00,55.1,39.2,29.79,North,352,4.0,4.0,55,0.00,,---,0.03,VWS V14.01,2013-04-07 16:53:00,
2013-04-07 11:55:00,55.1,39.2,29.79,West,272,2.0,4.0,55,0.00,,---,0.03,VWS V14.01,2013-04-07 16:55:00,
2013-04-07 11:56:00,55.3,39.0,29.79,West,271,3.0,4.0,54,0.00,,---,0.03,VWS V14.01,2013-04-07 16:56:00,
2013-04-07 11:57:00,55.3,39.0,29.79,West,265,1.0,3.0,54,0.00,,---,0.03,VWS V14.01,2013-04-07 16:57:00,
2013-04-07 12:00:00,55.4,38.1,29.79,WNW,303,2.0,6.0,52,0.00,,---,0.03,VWS V14.01,2013-04-07 17:00:00,
2013-04-07 12:01:00,55.4,38.6,29.79,WNW,293,3.0,4.0,53,0.00,,---,0.03,VWS V14.01,2013-04-07 17:01:00,
2013-04-07 12:02:00,55.4,38.1,29.79,NNW,347,4.0,6.0,52,0.00,,---,0.03,VWS V14.01,2013-04-07 17:02:00,
2013-04-07 12:05:00,55.4,38.6,29.79,NNE,13,3.0,5.0,53,0.00,,---,0.03,VWS V14.01,2013-04-07 17:05:00,
2013-04-07 12:07:00,55.6,38.8,29.79,WNW,291,0.0,2.0,53,0.00,,---,0.03,VWS V14.01,2013-04-07 17:07:00,
2013-04-07 12:10:00,56.0,39.6,29.79,WSW,253,1.0,3.0,54,0.00,,---,0.03,VWS V14.01,2013-04-07 17:10:00,
2013-04-07 12:11:00,56.2,38.8,29.79,NW,307,3.0,4.0,52,0.00,,---,0.03,VWS V14.01,2013-04-07 17:11:00,
2013-04-07 12:12:00,56.2,38.8,29.79,WNW,300,0.0,4.0,52,0.00,,---,0.03,VWS V14.01,2013-04-07 17:12:00,
2013-04-07 12:16:00,56.5,39.6,29.80,North,354,4.0,5.0,53,0.00,,---,0.03,VWS V14.01,2013-04-07 17:16:00,
2013-04-07 12:17:00,56.5,39.6,29.80,WNW,298,3.0,5.0,53,0.00,,---,0.03,VWS V14.01,2013-04-07 17:17:00,
2013-04-07 12:18:00,56.5,38.6,29.80,NW,326,1.0,4.0,51,0.00,,---,0.03,VWS V14.01,2013-04-07 17:18:00,
2013-04-07 12:23:00,56.6,38.7,29.80,NNW,340,7.0,7.0,51,0.00,,---,0.03,VWS V14.01,2013-04-07 17:23:00,
2013-04-07 12:24:00,56.6,38.2,29.80,NW,323,5.0,9.0,50,0.00,,---,0.03,VWS V14.01,2013-04-07 17:24:00,
2013-04-07 12:25:00,56.5,38.6,29.80,North,358,9.0,9.0,51,0.00,,---,0.03,VWS V14.01,2013-04-07 17:25:00,
2013-04-07 12:28:00,56.3,38.4,29.80,NNW,343,2.0,5.0,51,0.00,,---,0.03,VWS V14.01,2013-04-07 17:28:00,
2013-04-07 12:29:00,56.5,40.1,29.80,WNW,282,2.0,3.0,54,0.00,,---,0.03,VWS V14.01,2013-04-07 17:29:00,
2013-04-07 12:30:00,56.5,39.6,29.80,West,265,3.0,5.0,53,0.00,,---,0.03,VWS V14.01,2013-04-07 17:30:00,
2013-04-07 12:33:00,56.7,39.8,29.80,WNW,283,3.0,3.0,53,0.00,,---,0.03,VWS V14.01,2013-04-07 17:33:00,
2013-04-07 12:35:00,56.7,38.3,29.80,NNW,338,0.0,6.0,50,0.00,,---,0.03,VWS V14.01,2013-04-07 17:35:00,
2013-04-07 12:40:00,57.0,39.1,29.80,WNW,291,4.0,4.0,51,0.00,,---,0.03,VWS V14.01,2013-04-07 17:40:00,
2013-04-07 12:41:00,57.0,38.6,29.80,NNW,334,2.0,4.0,50,0.00,,---,0.03,VWS V14.01,2013-04-07 17:41:00,
2013-04-07 12:46:00,57.6,38.6,29.79,SW,216,4.0,4.0,49,0.00,,---,0.03,VWS V14.01,2013-04-07 17:46:00,
2013-04-07 12:47:00,57.6,38.1,29.79,WNW,284,5.0,9.0,48,0.00,,---,0.03,VWS V14.01,2013-04-07 17:47:00,
2013-04-07 12:50:00,57.8,38.8,29.79,NNW,343,4.0,4.0,49,0.00,,---,0.03,VWS V14.01,2013-04-07 17:50:00,
2013-04-07 12:52:00,57.8,38.8,29.79,WSW,243,5.0,5.0,49,0.00,,---,0.03,VWS V14.01,2013-04-07 17:52:00,
2013-04-07 12:54:00,58.0,38.4,29.79,WNW,285,2.0,4.0,48,0.00,,---,0.03,VWS V14.01,2013-04-07 17:54:00,
2013-04-07 12:55:00,58.0,38.4,29.79,North,6,3.0,6.0,48,0.00,,---,0.03,VWS V14.01,2013-04-07 17:55:00,
2013-04-07 12:56:00,58.0,38.4,29.79,North,356,2.0,5.0,48,0.00,,---,0.03,VWS V14.01,2013-04-07 17:56:00,
2013-04-07 12:57:00,58.1,39.6,29.79,North,356,0.0,2.0,50,0.00,,---,0.03,VWS V14.01,2013-04-07 17:57:00,
2013-04-07 12:59:00,58.3,38.7,29.79,WNW,287,2.0,3.0,48,0.00,,---,0.03,VWS V14.01,2013-04-07 17:59:00,
2013-04-07 13:00:00,58.4,39.3,29.79,NNW,328,3.0,3.0,49,0.00,,---,0.03,VWS V14.01,2013-04-07 18:00:00,
2013-04-07 13:01:00,58.6,39.5,29.79,West,265,4.0,4.0,49,0.00,,---,0.03,VWS V14.01,2013-04-07 18:01:00,
2013-04-07 13:04:00,58.9,38.7,29.79,NW,309,3.0,5.0,47,0.00,,---,0.03,VWS V14.01,2013-04-07 18:04:00,
2013-04-07 13:06:00,58.9,38.7,29.79,NW,310,3.0,4.0,47,0.00,,---,0.03,VWS V14.01,2013-04-07 18:06:00,
2013-04-07 13:09:00,59.2,39.0,29.79,NNW,330,2.0,5.0,47,0.00,,---,0.03,VWS V14.01,2013-04-07 18:09:00,
2013-04-07 13:10:00,59.3,40.2,29.79,NW,304,4.0,4.0,49,0.00,,---,0.03,VWS V14.01,2013-04-07 18:10:00,
2013-04-07 13:11:00,59.5,39.3,29.79,WNW,295,2.0,7.0,47,0.00,,---,0.03,VWS V14.01,2013-04-07 18:11:00,
2013-04-07 13:14:00,59.3,39.6,29.79,NNW,328,1.0,3.0,48,0.00,,---,0.03,VWS V14.01,2013-04-07 18:14:00,
2013-04-07 13:15:00,59.3,39.6,29.79,NNW,328,3.0,3.0,48,0.00,,---,0.03,VWS V14.01,2013-04-07 18:15:00,
2013-04-07 13:16:00,59.5,41.4,29.79,NNW,328,2.0,2.0,51,0.00,,---,0.03,VWS V14.01,2013-04-07 18:16:00,
2013-04-07 13:20:00,59.8,40.6,29.79,North,349,5.0,5.0,49,0.00,,---,0.03,VWS V14.01,2013-04-07 18:20:00,
2013-04-07 13:22:00,59.8,40.6,29.79,NNW,337,3.0,3.0,49,0.00,,---,0.03,VWS V14.01,2013-04-07 18:22:00,
2013-04-07 13:23:00,59.9,40.7,29.79,North,0,3.0,4.0,49,0.00,,---,0.03,VWS V14.01,2013-04-07 18:23:00,
2013-04-07 13:27:00,59.9,40.2,29.79,North,1,2.0,3.0,48,0.00,,---,0.03,VWS V14.01,2013-04-07 18:27:00,
2013-04-07 13:28:00,59.9,40.2,29.79,NNE,19,2.0,4.0,48,0.00,,---,0.03,VWS V14.01,2013-04-07 18:28:00,
2013-04-07 13:33:00,59.5,39.8,29.79,NW,323,1.0,4.0,48,0.00,,---,0.03,VWS V14.01,2013-04-07 18:33:00,
2013-04-07 13:35:00,59.3,40.7,29.79,NNW,336,3.0,4.0,50,0.00,,---,0.03,VWS V14.01,2013-04-07 18:35:00,
2013-04-07 13:36:00,59.3,40.7,29.79,North,2,2.0,3.0,50,0.00,,---,0.03,VWS V14.01,2013-04-07 18:36:00,
2013-04-07 13:38:00,59.3,40.7,29.79,North,355,5.0,5.0,50,0.00,,---,0.03,VWS V14.01,2013-04-07 18:38:00,
2013-04-07 13:41:00,58.9,40.3,29.79,North,358,3.0,4.0,50,0.00,,---,0.03,VWS V14.01,2013-04-07 18:41:00,
2013-04-07 13:43:00,58.9,40.3,29.79,ENE,73,2.0,3.0,50,0.00,,---,0.03,VWS V14.01,2013-04-07 18:43:00,
2013-04-07 13:44:00,58.6,40.0,29.80,ENE,65,4.0,4.0,50,0.00,,---,0.03,VWS V14.01,2013-04-07 18:44:00,
2013-04-07 13:47:00,58.3,39.8,29.80,NE,52,2.0,3.0,50,0.00,,---,0.03,VWS V14.01,2013-04-07 18:47:00,
2013-04-07 13:48:00,58.3,39.8,29.80,North,352,3.0,3.0,50,0.00,,---,0.03,VWS V14.01,2013-04-07 18:48:00,
2013-04-07 13:50:00,58.3,39.8,29.80,NNW,331,3.0,4.0,50,0.00,,---,0.03,VWS V14.01,2013-04-07 18:50:00,
2013-04-07 13:51:00,58.3,40.8,29.80,NNW,334,4.0,5.0,52,0.00,,---,0.03,VWS V14.01,2013-04-07 18:51:00,
2013-04-07 13:54:00,58.3,39.8,29.80,NNW,345,2.0,7.0,50,0.00,,---,0.03,VWS V14.01,2013-04-07 18:54:00,
2013-04-07 13:55:00,58.1,40.1,29.80,NNW,330,3.0,5.0,51,0.00,,---,0.03,VWS V14.01,2013-04-07 18:55:00,
2013-04-07 13:58:00,58.0,40.5,29.80,NNW,342,2.0,5.0,52,0.00,,---,0.03,VWS V14.01,2013-04-07 18:58:00,
2013-04-07 14:03:00,57.6,40.1,29.80,NNW,346,4.0,4.0,52,0.00,,---,0.03,VWS V14.01,2013-04-07 19:03:00,
2013-04-07 14:05:00,57.6,40.1,29.80,WNW,289,3.0,3.0,52,0.00,,---,0.03,VWS V14.01,2013-04-07 19:05:00,
2013-04-07 14:06:00,57.6,40.1,29.80,WNW,289,0.0,3.0,52,0.00,,---,0.03,VWS V14.01,2013-04-07 19:06:00,
2013-04-07 14:09:00,57.8,39.3,29.80,North,0,2.0,4.0,50,0.00,,---,0.03,VWS V14.01,2013-04-07 19:09:00,
2013-04-07 14:10:00,57.8,39.8,29.80,North,352,2.0,4.0,51,0.00,,---,0.03,VWS V14.01,2013-04-07 19:10:00,
2013-04-07 14:11:00,57.8,39.3,29.80,North,352,2.0,4.0,50,0.00,,---,0.03,VWS V14.01,2013-04-07 19:11:00,
2013-04-07 14:14:00,57.6,39.1,29.79,NW,314,3.0,5.0,50,0.00,,---,0.03,VWS V14.01,2013-04-07 19:14:00,
2013-04-07 14:16:00,57.5,39.5,29.79,WNW,296,3.0,3.0,51,0.00,,---,0.03,VWS V14.01,2013-04-07 19:16:00,
2013-04-07 14:18:00,57.2,39.2,29.79,North,349,5.0,5.0,51,0.00,,---,0.03,VWS V14.01,2013-04-07 19:18:00,
2013-04-07 14:19:00,57.0,38.6,29.79,NNW,328,4.0,6.0,50,0.00,,---,0.03,VWS V14.01,2013-04-07 19:19:00,
2013-04-07 14:21:00,56.9,40.0,29.79,NNW,342,2.0,3.0,53,0.00,,---,0.03,VWS V14.01,2013-04-07 19:21:00,
2013-04-07 14:23:00,56.7,38.8,29.79,North,0,3.0,5.0,51,0.00,,---,0.03,VWS V14.01,2013-04-07 19:23:00,
2013-04-07 14:24:00,56.7,38.8,29.79,NNE,18,3.0,3.0,51,0.00,,---,0.03,VWS V14.01,2013-04-07 19:24:00,
2013-04-07 14:27:00,56.7,39.8,29.79,NNW,347,2.0,2.0,53,0.00,,---,0.03,VWS V14.01,2013-04-07 19:27:00,
2013-04-07 14:29:00,56.7,39.3,29.80,WSW,256,2.0,4.0,52,0.00,,---,0.03,VWS V14.01,2013-04-07 19:29:00,
2013-04-07 14:30:00,56.7,38.8,29.80,North,355,3.0,3.0,51,0.00,,---,0.03,VWS V14.01,2013-04-07 19:30:00,
2013-04-07 14:34:00,56.7,39.3,29.80,NNW,333,5.0,7.0,52,0.00,,---,0.03,VWS V14.01,2013-04-07 19:34:00,
2013-04-07 14:36:00,56.6,38.7,29.80,NW,324,4.0,4.0,51,0.00,,---,0.03,VWS V14.01,2013-04-07 19:36:00,
2013-04-07 14:39:00,56.6,39.2,29.80,NNE,15,0.0,2.0,52,0.00,,---,0.03,VWS V14.01,2013-04-07 19:39:00,
2013-04-07 14:40:00,56.6,39.2,29.80,NNW,338,2.0,4.0,52,0.00,,---,0.03,VWS V14.01,2013-04-07 19:40:00,
2013-04-07 14:41:00,56.6,38.7,29.80,North,358,2.0,3.0,51,0.00,,---,0.03,VWS V14.01,2013-04-07 19:41:00,
2013-04-07 14:43:00,56.5,39.1,29.81,NNW,329,0.0,2.0,52,0.00,,---,0.03,VWS V14.01,2013-04-07 19:43:00,
2013-04-07 14:46:00,56.3,37.9,29.81,North,1,2.0,2.0,50,0.00,,---,0.03,VWS V14.01,2013-04-07 19:46:00,
2013-04-07 14:48:00,56.3,38.4,29.81,NE,53,1.0,1.0,51,0.00,,---,0.03,VWS V14.01,2013-04-07 19:48:00,
2013-04-07 14:51:00,56.2,38.3,29.81,North,3,3.0,3.0,51,0.00,,---,0.03,VWS V14.01,2013-04-07 19:51:00,
2013-04-07 14:52:00,56.2,38.3,29.81,North,350,0.0,4.0,51,0.00,,---,0.03,VWS V14.01,2013-04-07 19:52:00,
2013-04-07 14:53:00,56.2,38.3,29.81,NE,49,0.0,4.0,51,0.00,,---,0.03,VWS V14.01,2013-04-07 19:53:00,
2013-04-07 14:55:00,56.2,38.8,29.81,ENE,72,6.0,6.0,52,0.00,,---,0.03,VWS V14.01,2013-04-07 19:55:00,
2013-04-07 14:58:00,56.2,39.3,29.81,North,11,2.0,2.0,53,0.00,,---,0.03,VWS V14.01,2013-04-07 19:58:00,
2013-04-07 14:59:00,56.2,38.8,29.81,North,0,3.0,3.0,52,0.00,,---,0.03,VWS V14.01,2013-04-07 19:59:00,
2013-04-07 15:02:00,56.0,38.2,29.81,NNE,29,1.0,3.0,51,0.00,,---,0.03,VWS V14.01,2013-04-07 20:02:00,
2013-04-07 15:03:00,56.0,38.6,29.81,ENE,77,0.0,4.0,52,0.00,,---,0.03,VWS V14.01,2013-04-07 20:03:00,
2013-04-07 15:04:00,55.9,38.5,29.81,ENE,59,1.0,2.0,52,0.00,,---,0.03,VWS V14.01,2013-04-07 20:04:00,
2013-04-07 15:08:00,55.4,38.1,29.81,North,358,2.0,4.0,52,0.00,,---,0.03,VWS V14.01,2013-04-07 20:08:00,
2013-04-07 15:09:00,55.3,38.0,29.81,NNW,342,0.0,3.0,52,0.00,,---,0.03,VWS V14.01,2013-04-07 20:09:00,
2013-04-07 15:11:00,55.3,38.5,29.81,North,7,2.0,3.0,53,0.00,,---,0.03,VWS V14.01,2013-04-07 20:11:00,
2013-04-07 15:13:00,55.1,38.3,29.81,North,5,2.0,3.0,53,0.00,,---,0.03,VWS V14.01,2013-04-07 20:13:00,
2013-04-07 15:14:00,55.0,38.2,29.81,North,356,3.0,5.0,53,0.00,,---,0.03,VWS V14.01,2013-04-07 20:14:00,
2013-04-07 15:16:00,55.0,38.2,29.81,North,354,2.0,3.0,53,0.00,,---,0.03,VWS V14.01,2013-04-07 20:16:00,
2013-04-07 15:17:00,54.8,38.0,29.81,NNW,347,3.0,4.0,53,0.00,,---,0.03,VWS V14.01,2013-04-07 20:17:00,
2013-04-07 15:20:00,54.8,38.5,29.81,North,0,4.0,4.0,54,0.00,,---,0.03,VWS V14.01,2013-04-07 20:20:00,
2013-04-07 15:22:00,55.0,38.2,29.81,NNW,338,3.0,3.0,53,0.00,,---,0.03,VWS V14.01,2013-04-07 20:22:00,
2013-04-07 15:26:00,55.1,38.8,29.81,NNE,19,2.0,2.0,54,0.00,,---,0.03,VWS V14.01,2013-04-07 20:26:00,
2013-04-07 15:27:00,55.1,38.3,29.81,NE,41,1.0,3.0,53,0.00,,---,0.03,VWS V14.01,2013-04-07 20:27:00,
2013-04-07 15:32:00,55.0,38.2,29.81,East,94,2.0,3.0,53,0.00,,---,0.03,VWS V14.01,2013-04-07 20:32:00,
2013-04-07 15:33:00,55.0,38.7,29.81,NNE,15,4.0,4.0,54,0.00,,---,0.03,VWS V14.01,2013-04-07 20:33:00,
2013-04-07 15:35:00,54.8,38.0,29.81,NE,47,2.0,5.0,53,0.00,,---,0.03,VWS V14.01,2013-04-07 20:35:00,
2013-04-07 15:38:00,55.0,38.7,29.81,ENE,78,2.0,4.0,54,0.00,,---,0.03,VWS V14.01,2013-04-07 20:38:00,
2013-04-07 15:40:00,55.3,39.4,29.81,ENE,60,2.0,2.0,55,0.00,,---,0.03,VWS V14.01,2013-04-07 20:40:00,
2013-04-07 15:41:00,55.3,39.4,29.81,North,1,2.0,3.0,55,0.00,,---,0.03,VWS V14.01,2013-04-07 20:41:00,
2013-04-07 15:43:00,55.6,39.2,29.81,NE,55,2.0,2.0,54,0.00,,---,0.03,VWS V14.01,2013-04-07 20:43:00,
2013-04-07 15:46:00,55.7,38.4,29.81,NNW,348,2.0,3.0,52,0.00,,---,0.03,VWS V14.01,2013-04-07 20:46:00,
2013-04-07 15:48:00,55.9,38.5,29.81,NNW,333,1.0,2.0,52,0.00,,---,0.03,VWS V14.01,2013-04-07 20:48:00,
2013-04-07 15:49:00,55.7,38.4,29.81,NNW,327,3.0,5.0,52,0.00,,---,0.03,VWS V14.01,2013-04-07 20:49:00,
2013-04-07 15:52:00,55.7,38.8,29.81,NNW,338,2.0,4.0,53,0.00,,---,0.03,VWS V14.01,2013-04-07 20:52:00,
2013-04-07 15:54:00,55.6,38.3,29.81,NNW,338,2.0,2.0,52,0.00,,---,0.03,VWS V14.01,2013-04-07 20:54:00,
2013-04-07 15:55:00,55.6,38.3,29.81,NNW,338,1.0,2.0,52,0.00,,---,0.03,VWS V14.01,2013-04-07 20:55:00,
2013-04-07 15:57:00,55.4,38.6,29.81,NNW,347,4.0,4.0,53,0.00,,---,0.03,VWS V14.01,2013-04-07 20:57:00,
2013-04-07 15:59:00,55.4,38.6,29.81,NW,317,2.0,4.0,53,0.00,,---,0.03,VWS V14.01,2013-04-07 20:59:00,
2013-04-07 16:00:00,55.4,38.6,29.81,NNW,342,2.0,3.0,53,0.00,,---,0.03,VWS V14.01,2013-04-07 21:00:00,
2013-04-07 16:02:00,55.6,38.8,29.81,NNE,30,1.0,3.0,53,0.00,,---,0.03,VWS V14.01,2013-04-07 21:02:00,
2013-04-07 16:04:00,55.6,38.8,29.81,NNE,20,0.0,1.0,53,0.00,,---,0.03,VWS V14.01,2013-04-07 21:04:00,
2013-04-07 16:05:00,55.6,38.8,29.81,NNE,20,1.0,1.0,53,0.00,,---,0.03,VWS V14.01,2013-04-07 21:05:00,
2013-04-07 16:06:00,55.6,38.3,29.81,NNE,20,0.0,1.0,52,0.00,,---,0.03,VWS V14.01,2013-04-07 21:06:00,
2013-04-07 16:07:00,55.6,38.3,29.81,NE,46,1.0,2.0,52,0.00,,---,0.03,VWS V14.01,2013-04-07 21:07:00,
2013-04-07 16:09:00,55.6,38.8,29.81,NNE,28,1.0,3.0,53,0.00,,---,0.03,VWS V14.01,2013-04-07 21:09:00,
2013-04-07 16:11:00,55.4,38.6,29.81,ENE,65,0.0,0.0,53,0.00,,---,0.03,VWS V14.01,2013-04-07 21:11:00,
2013-04-07 16:12:00,55.4,38.6,29.81,NE,37,2.0,3.0,53,0.00,,---,0.03,VWS V14.01,2013-04-07 21:12:00,
2013-04-07 16:13:00,55.4,38.6,29.81,NNE,28,2.0,3.0,53,0.00,,---,0.03,VWS V14.01,2013-04-07 21:13:00,
2013-04-07 16:14:00,55.4,38.6,29.82,NNE,20,1.0,3.0,53,0.00,,---,0.03,VWS V14.01,2013-04-07 21:14:00,
2013-04-07 16:17:00,55.1,38.3,29.82,North,353,2.0,3.0,53,0.00,,---,0.03,VWS V14.01,2013-04-07 21:17:00,
2013-04-07 16:19:00,55.0,38.2,29.82,North,0,1.0,1.0,53,0.00,,---,0.03,VWS V14.01,2013-04-07 21:19:00,
2013-04-07 16:20:00,54.8,38.0,29.82,NE,56,1.0,3.0,53,0.00,,---,0.03,VWS V14.01,2013-04-07 21:20:00,
2013-04-07 16:24:00,54.5,37.7,29.82,North,0,3.0,4.0,53,0.00,,---,0.03,VWS V14.01,2013-04-07 21:24:00,
2013-04-07 16:25:00,54.4,37.6,29.82,North,356,1.0,4.0,53,0.00,,---,0.03,VWS V14.01,2013-04-07 21:25:00,
2013-04-07 16:27:00,54.2,37.5,29.82,NNE,18,1.0,4.0,53,0.00,,---,0.03,VWS V14.01,2013-04-07 21:27:00,
2013-04-07 16:29:00,54.1,37.4,29.82,NE,41,1.0,1.0,53,0.00,,---,0.03,VWS V14.01,2013-04-07 21:29:00,
2013-04-07 16:32:00,53.8,37.6,29.82,North,0,3.0,4.0,54,0.00,,---,0.03,VWS V14.01,2013-04-07 21:32:00,
2013-04-07 16:33:00,53.6,36.9,29.82,North,358,3.0,4.0,53,0.00,,---,0.03,VWS V14.01,2013-04-07 21:33:00,
2013-04-07 16:37:00,53.5,37.8,29.82,NE,47,2.0,2.0,55,0.00,,---,0.03,VWS V14.01,2013-04-07 21:37:00,
2013-04-07 16:38:00,53.5,37.8,29.82,NE,47,1.0,2.0,55,0.00,,---,0.03,VWS V14.01,2013-04-07 21:38:00,
2013-04-07 16:40:00,53.3,37.6,29.82,NE,44,1.0,2.0,55,0.00,,---,0.03,VWS V14.01,2013-04-07 21:40:00,
2013-04-07 16:43:00,53.2,37.0,29.82,North,3,2.0,3.0,54,0.00,,---,0.03,VWS V14.01,2013-04-07 21:43:00,
2013-04-07 16:45:00,53.2,37.5,29.82,NE,45,1.0,2.0,55,0.00,,---,0.03,VWS V14.01,2013-04-07 21:45:00,
2013-04-07 16:46:00,53.1,37.4,29.82,NE,44,0.0,2.0,55,0.00,,---,0.03,VWS V14.01,2013-04-07 21:46:00,
2013-04-07 16:50:00,53.1,37.8,29.82,NE,41,0.0,0.0,56,0.00,,---,0.03,VWS V14.01,2013-04-07 21:50:00,
2013-04-07 16:52:00,53.1,37.8,29.82,North,3,1.0,2.0,56,0.00,,---,0.03,VWS V14.01,2013-04-07 21:52:00,
2013-04-07 16:57:00,53.1,37.4,29.82,ENE,65,1.0,3.0,55,0.00,,---,0.03,VWS V14.01,2013-04-07 21:57:00,
2013-04-07 16:58:00,52.9,37.2,29.82,ENE,78,0.0,3.0,55,0.00,,---,0.03,VWS V14.01,2013-04-07 21:58:00,
2013-04-07 17:00:00,52.9,37.2,29.82,NNW,339,0.0,3.0,55,0.00,,---,0.03,VWS V14.01,2013-04-07 22:00:00,
2013-04-07 17:03:00,52.9,37.7,29.82,NNW,341,0.0,2.0,56,0.00,,---,0.03,VWS V14.01,2013-04-07 22:03:00,
2013-04-07 17:05:00,52.9,37.2,29.82,NNW,341,2.0,2.0,55,0.00,,---,0.03,VWS V14.01,2013-04-07 22:05:00,
2013-04-07 17:08:00,52.9,37.7,29.82,NNW,341,0.0,1.0,56,0.00,,---,0.03,VWS V14.01,2013-04-07 22:08:00,
2013-04-07 17:09:00,52.9,37.7,29.82,North,0,0.0,2.0,56,0.00,,---,0.03,VWS V14.01,2013-04-07 22:09:00,
2013-04-07 17:11:00,52.9,37.7,29.82,North,0,0.0,1.0,56,0.00,,---,0.03,VWS V14.01,2013-04-07 22:11:00,
2013-04-07 17:13:00,52.9,37.2,29.82,North,0,0.0,0.0,55,0.00,,---,0.03,VWS V14.01,2013-04-07 22:13:00,
2013-04-07 17:14:00,52.9,37.2,29.83,North,0,0.0,0.0,55,0.00,,---,0.03,VWS V14.01,2013-04-07 22:14:00,
2013-04-07 17:19:00,53.2,37.5,29.83,ENE,75,0.0,2.0,55,0.00,,---,0.03,VWS V14.01,2013-04-07 22:19:00,
2013-04-07 17:20:00,53.2,37.5,29.83,North,3,3.0,3.0,55,0.00,,---,0.03,VWS V14.01,2013-04-07 22:20:00,
2013-04-07 17:22:00,53.2,37.0,29.83,ENE,65,1.0,1.0,54,0.00,,---,0.03,VWS V14.01,2013-04-07 22:22:00,
2013-04-07 17:24:00,53.2,37.0,29.83,NW,319,3.0,3.0,54,0.00,,---,0.03,VWS V14.01,2013-04-07 22:24:00,
2013-04-07 17:26:00,53.2,37.0,29.83,NW,319,0.0,2.0,54,0.00,,---,0.03,VWS V14.01,2013-04-07 22:26:00,
2013-04-07 17:27:00,53.3,37.1,29.83,NW,319,2.0,3.0,54,0.00,,---,0.03,VWS V14.01,2013-04-07 22:27:00,
2013-04-07 17:29:00,53.5,37.3,29.83,NW,319,0.0,0.0,54,0.00,,---,0.03,VWS V14.01,2013-04-07 22:29:00,
2013-04-07 17:30:00,53.5,37.8,29.83,NW,319,0.0,1.0,55,0.00,,---,0.03,VWS V14.01,2013-04-07 22:30:00,
2013-04-07 17:32:00,53.6,37.4,29.83,NW,319,0.0,1.0,54,0.00,,---,0.03,VWS V14.01,2013-04-07 22:32:00,
2013-04-07 17:35:00,53.8,37.6,29.83,NW,319,1.0,2.0,54,0.00,,---,0.03,VWS V14.01,2013-04-07 22:35:00,
2013-04-07 17:36:00,53.6,37.4,29.83,NW,320,0.0,0.0,54,0.00,,---,0.03,VWS V14.01,2013-04-07 22:36:00,
2013-04-07 17:37:00,53.6,36.9,29.83,NW,320,0.0,0.0,53,0.00,,---,0.03,VWS V14.01,2013-04-07 22:37:00,
2013-04-07 17:40:00,53.2,37.0,29.83,East,87,2.0,2.0,54,0.00,,---,0.03,VWS V14.01,2013-04-07 22:40:00,
2013-04-07 17:44:00,52.8,37.1,29.83,East,87,0.0,0.0,55,0.00,,---,0.03,VWS V14.01,2013-04-07 22:44:00,
2013-04-07 17:45:00,52.6,36.9,29.83,East,87,1.0,1.0,55,0.00,,---,0.03,VWS V14.01,2013-04-07 22:45:00,
2013-04-07 17:47:00,52.5,36.8,29.83,East,87,0.0,0.0,55,0.00,,---,0.03,VWS V14.01,2013-04-07 22:47:00,
2013-04-07 17:49:00,52.2,36.5,29.83,East,87,0.0,1.0,55,0.00,,---,0.03,VWS V14.01,2013-04-07 22:49:00,
2013-04-07 17:50:00,52.2,36.5,29.83,East,87,0.0,0.0,55,0.00,,---,0.03,VWS V14.01,2013-04-07 22:50:00,
2013-04-07 17:51:00,52.0,36.8,29.83,East,87,0.0,0.0,56,0.00,,---,0.03,VWS V14.01,2013-04-07 22:51:00,
2013-04-07 17:53:00,52.0,36.8,29.83,North,1,0.0,3.0,56,0.00,,---,0.03,VWS V14.01,2013-04-07 22:53:00,
2013-04-07 17:55:00,51.9,36.7,29.83,NNE,32,0.0,1.0,56,0.00,,---,0.03,VWS V14.01,2013-04-07 22:55:00,
2013-04-07 17:57:00,51.7,36.5,29.83,East,98,1.0,2.0,56,0.00,,---,0.03,VWS V14.01,2013-04-07 22:57:00,
2013-04-07 17:58:00,51.7,36.5,29.83,East,98,0.0,1.0,56,0.00,,---,0.03,VWS V14.01,2013-04-07 22:58:00,
2013-04-07 18:00:00,51.6,36.9,29.83,East,98,0.0,0.0,57,0.00,,---,0.03,VWS V14.01,2013-04-07 23:00:00,
2013-04-07 18:01:00,51.6,36.9,29.83,East,98,0.0,0.0,57,0.00,,---,0.03,VWS V14.01,2013-04-07 23:01:00,
2013-04-07 18:03:00,51.4,36.7,29.83,North,354,2.0,3.0,57,0.00,,---,0.03,VWS V14.01,2013-04-07 23:03:00,
2013-04-07 18:04:00,51.4,36.2,29.83,NNW,342,0.0,2.0,56,0.00,,---,0.03,VWS V14.01,2013-04-07 23:04:00,
2013-04-07 18:06:00,51.4,36.7,29.83,ENE,75,1.0,2.0,57,0.00,,---,0.03,VWS V14.01,2013-04-07 23:06:00,
2013-04-07 18:08:00,51.4,36.7,29.83,NE,51,0.0,2.0,57,0.00,,---,0.03,VWS V14.01,2013-04-07 23:08:00,
2013-04-07 18:09:00,51.4,36.7,29.83,NE,51,0.0,0.0,57,0.00,,---,0.03,VWS V14.01,2013-04-07 23:09:00,
2013-04-07 18:12:00,51.3,36.6,29.83,NNE,16,0.0,1.0,57,0.00,,---,0.03,VWS V14.01,2013-04-07 23:12:00,
2013-04-07 18:14:00,51.3,36.6,29.84,NE,41,1.0,1.0,57,0.00,,---,0.03,VWS V14.01,2013-04-07 23:14:00,
2013-04-07 18:15:00,51.1,36.4,29.84,NE,41,0.0,0.0,57,0.00,,---,0.03,VWS V14.01,2013-04-07 23:15:00,
2013-04-07 18:17:00,51.0,36.3,29.84,NE,41,2.0,2.0,57,0.00,,---,0.03,VWS V14.01,2013-04-07 23:17:00,
2013-04-07 18:20:00,51.0,36.3,29.84,NE,41,1.0,2.0,57,0.00,,---,0.03,VWS V14.01,2013-04-07 23:20:00,
2013-04-07 18:22:00,50.8,36.1,29.84,NE,41,0.0,3.0,57,0.00,,---,0.03,VWS V14.01,2013-04-07 23:22:00,
2013-04-07 18:25:00,50.5,36.3,29.84,NE,40,0.0,0.0,58,0.00,,---,0.03,VWS V14.01,2013-04-07 23:25:00,
2013-04-07 18:27:00,50.5,36.3,29.84,NE,40,0.0,1.0,58,0.00,,---,0.03,VWS V14.01,2013-04-07 23:27:00,
2013-04-07 18:28:00,50.4,36.2,29.84,NE,40,2.0,2.0,58,0.00,,---,0.03,VWS V14.01,2013-04-07 23:28:00,
2013-04-07 18:29:00,50.4,36.2,29.84,NE,41,0.0,1.0,58,0.00,,---,0.03,VWS V14.01,2013-04-07 23:29:00,
2013-04-07 18:32:00,50.1,36.3,29.84,ENE,77,0.0,1.0,59,0.00,,---,0.03,VWS V14.01,2013-04-07 23:32:00,
2013-04-07 18:34:00,49.9,36.2,29.84,ENE,77,2.0,2.0,59,0.00,,---,0.03,VWS V14.01,2013-04-07 23:34:00,
2013-04-07 18:35:00,49.9,36.2,29.84,ENE,77,0.0,2.0,59,0.00,,---,0.03,VWS V14.01,2013-04-07 23:35:00,
2013-04-07 18:37:00,49.8,36.1,29.84,North,0,2.0,2.0,59,0.00,,---,0.03,VWS V14.01,2013-04-07 23:37:00,
2013-04-07 18:38:00,49.8,36.1,29.84,NE,35,3.0,3.0,59,0.00,,---,0.03,VWS V14.01,2013-04-07 23:38:00,
2013-04-07 18:40:00,49.6,35.9,29.84,NNE,28,1.0,2.0,59,0.00,,---,0.03,VWS V14.01,2013-04-07 23:40:00,
2013-04-07 18:41:00,49.5,35.8,29.84,NNE,28,0.0,2.0,59,0.00,,---,0.03,VWS V14.01,2013-04-07 23:41:00,
2013-04-07 18:43:00,49.4,35.7,29.84,NE,38,0.0,0.0,59,0.00,,---,0.03,VWS V14.01,2013-04-07 23:43:00,
2013-04-07 18:44:00,49.4,35.7,29.84,NE,38,0.0,1.0,59,0.00,,---,0.03,VWS V14.01,2013-04-07 23:44:00,
2013-04-07 18:45:00,49.2,35.9,29.84,East,98,0.0,0.0,60,0.00,,---,0.03,VWS V14.01,2013-04-07 23:45:00,
2013-04-07 18:47:00,49.1,35.8,29.84,East,98,0.0,1.0,60,0.00,,---,0.03,VWS V14.01,2013-04-07 23:47:00,
2013-04-07 18:49:00,48.9,35.6,29.84,NNE,27,2.0,2.0,60,0.00,,---,0.03,VWS V14.01,2013-04-07 23:49:00,
2013-04-07 18:51:00,48.8,35.5,29.84,NNE,27,0.0,0.0,60,0.00,,---,0.03,VWS V14.01,2013-04-07 23:51:00,
2013-04-07 18:52:00,48.8,35.5,29.84,NNE,27,0.0,0.0,60,0.00,,---,0.03,VWS V14.01,2013-04-07 23:52:00,
2013-04-07 18:56:00,48.5,35.7,29.84,North,355,0.0,2.0,61,0.00,,---,0.03,VWS V14.01,2013-04-07 23:56:00,
2013-04-07 18:57:00,48.5,35.7,29.84,North,358,0.0,1.0,61,0.00,,---,0.03,VWS V14.01,2013-04-07 23:57:00,
2013-04-07 18:58:00,48.3,35.5,29.84,NNE,22,0.0,2.0,61,0.00,,---,0.03,VWS V14.01,2013-04-07 23:58:00,
2013-04-07 18:59:00,48.3,35.5,29.83,NNE,22,0.0,1.0,61,0.00,,---,0.03,VWS V14.01,2013-04-07 23:59:00,
2013-04-07 19:01:00,48.2,35.8,29.83,North,4,2.0,2.0,62,0.00,,---,0.03,VWS V14.01,2013-04-08 00:01:00,
2013-04-07 19:03:00,48.0,35.6,29.83,NNE,31,0.0,1.0,62,0.00,,---,0.03,VWS V14.01,2013-04-08 00:03:00,
2013-04-07 19:06:00,47.9,35.5,29.83,ENE,60,0.0,0.0,62,0.00,,---,0.03,VWS V14.01,2013-04-08 00:06:00,
2013-04-07 19:08:00,47.7,35.3,29.83,ENE,60,0.0,0.0,62,0.00,,---,0.03,VWS V14.01,2013-04-08 00:08:00,
2013-04-07 19:12:00,47.4,35.0,29.83,ENE,60,0.0,0.0,62,0.00,,---,0.03,VWS V14.01,2013-04-08 00:12:00,
2013-04-07 19:13:00,47.4,35.0,29.83,ENE,60,0.0,0.0,62,0.00,,---,0.03,VWS V14.01,2013-04-08 00:13:00,
2013-04-07 19:15:00,47.3,35.4,29.83,ENE,60,0.0,0.0,63,0.00,,---,0.03,VWS V14.01,2013-04-08 00:15:00,
2013-04-07 19:18:00,47.0,35.1,29.83,ENE,60,0.0,2.0,63,0.00,,---,0.03,VWS V14.01,2013-04-08 00:18:00,
2013-04-07 19:20:00,47.0,35.1,29.83,ENE,60,0.0,0.0,63,0.00,,---,0.03,VWS V14.01,2013-04-08 00:20:00,
2013-04-07 19:22:00,46.8,34.9,29.83,ENE,65,0.0,0.0,63,0.00,,---,0.03,VWS V14.01,2013-04-08 00:22:00,
2013-04-07 19:23:00,46.8,34.9,29.83,ENE,65,0.0,0.0,63,0.00,,---,0.03,VWS V14.01,2013-04-08 00:23:00,
2013-04-07 19:25:00,46.7,35.2,29.83,ENE,60,1.0,2.0,64,0.00,,---,0.03,VWS V14.01,2013-04-08 00:25:00,
2013-04-07 19:27:00,46.5,35.0,29.83,ENE,60,0.0,0.0,64,0.00,,---,0.03,VWS V14.01,2013-04-08 00:27:00,
2013-04-07 19:28:00,46.5,35.0,29.83,ENE,60,0.0,0.0,64,0.00,,---,0.03,VWS V14.01,2013-04-08 00:28:00,
2013-04-07 19:32:00,46.2,34.7,29.83,NE,45,0.0,2.0,64,0.00,,---,0.03,VWS V14.01,2013-04-08 00:32:00,
2013-04-07 19:33:00,46.2,35.1,29.83,ENE,75,1.0,2.0,65,0.00,,---,0.03,VWS V14.01,2013-04-08 00:33:00,
2013-04-07 19:37:00,46.0,34.9,29.83,ENE,75,0.0,0.0,65,0.00,,---,0.03,VWS V14.01,2013-04-08 00:37:00,
2013-04-07 19:38:00,46.0,34.9,29.83,ENE,75,0.0,0.0,65,0.00,,---,0.03,VWS V14.01,2013-04-08 00:38:00,
2013-04-07 19:40:00,45.8,34.7,29.83,ENE,75,0.0,0.0,65,0.00,,---,0.03,VWS V14.01,2013-04-08 00:40:00,
2013-04-07 19:41:00,45.8,34.7,29.83,ENE,75,0.0,0.0,65,0.00,,---,0.03,VWS V14.01,2013-04-08 00:41:00,
2013-04-07 19:43:00,45.8,34.7,29.83,ENE,75,0.0,0.0,65,0.00,,---,0.03,VWS V14.01,2013-04-08 00:43:00,
2013-04-07 19:44:00,45.7,34.6,29.83,ENE,75,2.0,2.0,65,0.00,,---,0.03,VWS V14.01,2013-04-08 00:44:00,
2013-04-07 19:46:00,45.7,35.0,29.83,ENE,75,0.0,0.0,66,0.00,,---,0.03,VWS V14.01,2013-04-08 00:46:00,
2013-04-07 19:48:00,45.5,34.8,29.83,NNE,31,0.0,0.0,66,0.00,,---,0.03,VWS V14.01,2013-04-08 00:48:00,
2013-04-07 19:50:00,45.4,34.7,29.83,NNE,31,0.0,0.0,66,0.00,,---,0.03,VWS V14.01,2013-04-08 00:50:00,
2013-04-07 19:51:00,45.4,34.7,29.83,NNE,31,0.0,0.0,66,0.00,,---,0.03,VWS V14.01,2013-04-08 00:51:00,
2013-04-07 19:54:00,45.2,34.5,29.83,NNE,31,0.0,0.0,66,0.00,,---,0.03,VWS V14.01,2013-04-08 00:54:00,
2013-04-07 19:55:00,45.2,34.5,29.83,NNE,31,0.0,0.0,66,0.00,,---,0.03,VWS V14.01,2013-04-08 00:55:00,
2013-04-07 19:57:00,45.1,34.8,29.83,NNE,31,0.0,0.0,67,0.00,,---,0.03,VWS V14.01,2013-04-08 00:57:00,
2013-04-07 20:00:00,44.9,34.6,29.83,NNE,31,0.0,0.0,67,0.00,,---,0.03,VWS V14.01,2013-04-08 01:00:00,
2013-04-07 20:01:00,44.9,34.6,29.83,NNE,31,0.0,0.0,67,0.00,,---,0.03,VWS V14.01,2013-04-08 01:01:00,
2013-04-07 20:03:00,44.8,34.5,29.83,NNE,31,0.0,0.0,67,0.00,,---,0.03,VWS V14.01,2013-04-08 01:03:00,
2013-04-07 20:05:00,44.6,34.3,29.83,NNE,31,0.0,0.0,67,0.00,,---,0.03,VWS V14.01,2013-04-08 01:05:00,
2013-04-07 20:07:00,44.5,34.6,29.83,NNE,31,0.0,0.0,68,0.00,,---,0.03,VWS V14.01,2013-04-08 01:07:00,
2013-04-07 20:08:00,44.5,34.6,29.83,NNE,31,0.0,0.0,68,0.00,,---,0.03,VWS V14.01,2013-04-08 01:08:00,
2013-04-07 20:09:00,44.5,34.6,29.83,NNE,31,0.0,0.0,68,0.00,,---,0.03,VWS V14.01,2013-04-08 01:09:00,
2013-04-07 20:12:00,44.3,34.4,29.83,NNE,31,0.0,0.0,68,0.00,,---,0.03,VWS V14.01,2013-04-08 01:12:00,
2013-04-07 20:15:00,44.1,34.2,29.84,NNE,31,0.0,0.0,68,0.00,,---,0.03,VWS V14.01,2013-04-08 01:15:00,
2013-04-07 20:18:00,44.1,34.2,29.84,NNE,31,0.0,0.0,68,0.00,,---,0.03,VWS V14.01,2013-04-08 01:18:00,
2013-04-07 20:21:00,43.8,34.3,29.84,NNE,31,0.0,0.0,69,0.00,,---,0.03,VWS V14.01,2013-04-08 01:21:00,
2013-04-07 20:23:00,43.6,34.1,29.84,NNE,31,0.0,0.0,69,0.00,,---,0.03,VWS V14.01,2013-04-08 01:23:00,
2013-04-07 20:26:00,43.5,34.0,29.84,NNE,31,0.0,0.0,69,0.00,,---,0.03,VWS V14.01,2013-04-08 01:26:00,
2013-04-07 20:27:00,43.5,34.4,29.84,NNE,31,0.0,0.0,70,0.00,,---,0.03,VWS V14.01,2013-04-08 01:27:00,
2013-04-07 20:28:00,43.3,34.2,29.84,NNE,31,0.0,0.0,70,0.00,,---,0.03,VWS V14.01,2013-04-08 01:28:00,
2013-04-07 20:32:00,43.1,34.0,29.84,NNE,31,0.0,0.0,70,0.00,,---,0.03,VWS V14.01,2013-04-08 01:32:00,
2013-04-07 20:33:00,43.1,34.0,29.84,NNE,31,0.0,0.0,70,0.00,,---,0.03,VWS V14.01,2013-04-08 01:33:00,
2013-04-07 20:37:00,42.9,34.2,29.84,NNE,31,0.0,0.0,71,0.00,,---,0.03,VWS V14.01,2013-04-08 01:37:00,
2013-04-07 20:40:00,42.8,34.1,29.84,NNE,31,0.0,0.0,71,0.00,,---,0.03,VWS V14.01,2013-04-08 01:40:00,
2013-04-07 20:45:00,42.5,34.1,29.84,NNE,31,0.0,0.0,72,0.00,,---,0.03,VWS V14.01,2013-04-08 01:45:00,
2013-04-07 20:46:00,42.5,34.1,29.84,NNE,31,0.0,0.0,72,0.00,,---,0.03,VWS V14.01,2013-04-08 01:46:00,
2013-04-07 20:48:00,42.5,34.5,29.84,NNE,31,0.0,0.0,73,0.00,,---,0.03,VWS V14.01,2013-04-08 01:48:00,
2013-04-07 20:52:00,42.3,34.3,29.84,NNE,31,0.0,0.0,73,0.00,,---,0.03,VWS V14.01,2013-04-08 01:52:00,
2013-04-07 20:54:00,42.3,34.3,29.84,NNE,31,0.0,0.0,73,0.00,,---,0.03,VWS V14.01,2013-04-08 01:54:00,
2013-04-07 20:58:00,42.3,34.6,29.84,NNE,31,0.0,0.0,74,0.00,,---,0.03,VWS V14.01,2013-04-08 01:58:00,
2013-04-07 21:00:00,42.3,34.6,29.84,NNE,31,0.0,0.0,74,0.00,,---,0.03,VWS V14.01,2013-04-08 02:00:00,
2013-04-07 21:02:00,42.3,34.6,29.84,NNE,31,0.0,0.0,74,0.00,,---,0.03,VWS V14.01,2013-04-08 02:02:00,
2013-04-07 21:05:00,42.3,34.6,29.84,NNE,31,0.0,0.0,74,0.00,,---,0.03,VWS V14.01,2013-04-08 02:05:00,
2013-04-07 21:06:00,42.3,34.6,29.84,NNE,31,0.0,0.0,74,0.00,,---,0.03,VWS V14.01,2013-04-08 02:06:00,
2013-04-07 21:09:00,42.3,34.6,29.84,NNE,31,0.0,0.0,74,0.00,,---,0.03,VWS V14.01,2013-04-08 02:09:00,
2013-04-07 21:11:00,42.3,34.6,29.84,NNE,31,0.0,0.0,74,0.00,,---,0.03,VWS V14.01,2013-04-08 02:11:00,
2013-04-07 21:13:00,42.3,34.6,29.84,NNE,31,0.0,0.0,74,0.00,,---,0.03,VWS V14.01,2013-04-08 02:13:00,
2013-04-07 21:15:00,42.3,34.6,29.84,NNE,31,0.0,0.0,74,0.00,,---,0.03,VWS V14.01,2013-04-08 02:15:00,
2013-04-07 21:17:00,42.2,34.5,29.84,NNE,31,0.0,0.0,74,0.00,,---,0.03,VWS V14.01,2013-04-08 02:17:00,
2013-04-07 21:18:00,42.2,34.5,29.84,NNE,31,0.0,0.0,74,0.00,,---,0.03,VWS V14.01,2013-04-08 02:18:00,
2013-04-07 21:22:00,42.1,34.4,29.84,NNE,31,0.0,0.0,74,0.00,,---,0.03,VWS V14.01,2013-04-08 02:22:00,
2013-04-07 21:23:00,42.1,34.4,29.84,NNE,31,0.0,0.0,74,0.00,,---,0.03,VWS V14.01,2013-04-08 02:23:00,
2013-04-07 21:25:00,41.9,34.2,29.84,NNE,31,0.0,0.0,74,0.00,,---,0.03,VWS V14.01,2013-04-08 02:25:00,
2013-04-07 21:27:00,41.9,34.2,29.84,NNE,31,0.0,0.0,74,0.00,,---,0.03,VWS V14.01,2013-04-08 02:27:00,
2013-04-07 21:28:00,41.9,34.6,29.84,NNE,31,0.0,0.0,75,0.00,,---,0.03,VWS V14.01,2013-04-08 02:28:00,
2013-04-07 21:30:00,41.9,34.6,29.84,NNE,31,0.0,0.0,75,0.00,,---,0.03,VWS V14.01,2013-04-08 02:30:00,
2013-04-07 21:32:00,41.9,34.6,29.84,NNE,31,0.0,0.0,75,0.00,,---,0.03,VWS V14.01,2013-04-08 02:32:00,
2013-04-07 21:33:00,41.9,34.6,29.84,NNE,31,0.0,0.0,75,0.00,,---,0.03,VWS V14.01,2013-04-08 02:33:00,
2013-04-07 21:34:00,41.9,34.6,29.84,NNE,31,0.0,0.0,75,0.00,,---,0.03,VWS V14.01,2013-04-08 02:34:00,
2013-04-07 21:35:00,41.8,34.5,29.84,NNE,31,0.0,0.0,75,0.00,,---,0.03,VWS V14.01,2013-04-08 02:35:00,
2013-04-07 21:38:00,41.8,34.5,29.84,NNE,31,0.0,0.0,75,0.00,,---,0.03,VWS V14.01,2013-04-08 02:38:00,
2013-04-07 21:40:00,41.8,34.5,29.84,NNE,31,0.0,0.0,75,0.00,,---,0.03,VWS V14.01,2013-04-08 02:40:00,
2013-04-07 21:44:00,41.8,34.8,29.84,NNE,31,0.0,0.0,76,0.00,,---,0.03,VWS V14.01,2013-04-08 02:44:00,
2013-04-07 21:46:00,41.8,34.8,29.84,NNE,31,0.0,0.0,76,0.00,,---,0.03,VWS V14.01,2013-04-08 02:46:00,
2013-04-07 21:50:00,41.8,34.8,29.84,NNE,31,0.0,0.0,76,0.00,,---,0.03,VWS V14.01,2013-04-08 02:50:00,
2013-04-07 21:52:00,41.8,34.8,29.84,NNE,31,0.0,0.0,76,0.00,,---,0.03,VWS V14.01,2013-04-08 02:52:00,
2013-04-07 21:57:00,41.6,34.6,29.84,NNE,31,0.0,0.0,76,0.00,,---,0.03,VWS V14.01,2013-04-08 02:57:00,
2013-04-07 22:00:00,41.6,34.6,29.84,NNE,31,0.0,0.0,76,0.00,,---,0.03,VWS V14.01,2013-04-08 03:00:00,
2013-04-07 22:04:00,41.5,34.8,29.84,NNE,31,0.0,0.0,77,0.00,,---,0.03,VWS V14.01,2013-04-08 03:04:00,
2013-04-07 22:05:00,41.5,34.8,29.84,NNE,31,0.0,0.0,77,0.00,,---,0.03,VWS V14.01,2013-04-08 03:05:00,
2013-04-07 22:10:00,41.6,34.9,29.84,NNE,31,0.0,1.0,77,0.00,,---,0.03,VWS V14.01,2013-04-08 03:10:00,
2013-04-07 22:11:00,41.6,34.9,29.84,NNE,31,0.0,0.0,77,0.00,,---,0.03,VWS V14.01,2013-04-08 03:11:00,
2013-04-07 22:12:00,41.6,34.9,29.84,NNE,31,0.0,0.0,77,0.00,,---,0.03,VWS V14.01,2013-04-08 03:12:00,
2013-04-07 22:17:00,41.9,35.2,29.83,ESE,104,0.0,0.0,77,0.00,,---,0.03,VWS V14.01,2013-04-08 03:17:00,
2013-04-07 22:22:00,42.2,35.5,29.83,ESE,105,1.0,2.0,77,0.00,,---,0.03,VWS V14.01,2013-04-08 03:22:00,
2013-04-07 22:23:00,42.2,35.5,29.83,ESE,105,0.0,2.0,77,0.00,,---,0.03,VWS V14.01,2013-04-08 03:23:00,
2013-04-07 22:25:00,42.3,35.3,29.83,ESE,105,0.0,0.0,76,0.00,,---,0.03,VWS V14.01,2013-04-08 03:25:00,
2013-04-07 22:28:00,42.3,35.3,29.83,ESE,105,0.0,0.0,76,0.00,,---,0.03,VWS V14.01,2013-04-08 03:28:00,
2013-04-07 22:32:00,42.3,35.3,29.83,ESE,105,0.0,0.0,76,0.00,,---,0.03,VWS V14.01,2013-04-08 03:32:00,
2013-04-07 22:33:00,42.3,35.0,29.83,ESE,105,0.0,0.0,75,0.00,,---,0.03,VWS V14.01,2013-04-08 03:33:00,
2013-04-07 22:34:00,42.3,35.0,29.83,ESE,105,0.0,2.0,75,0.00,,---,0.03,VWS V14.01,2013-04-08 03:34:00,
2013-04-07 22:37:00,42.3,35.0,29.83,ESE,105,0.0,0.0,75,0.00,,---,0.03,VWS V14.01,2013-04-08 03:37:00,
2013-04-07 22:38:00,42.3,35.0,29.83,ESE,105,0.0,0.0,75,0.00,,---,0.03,VWS V14.01,2013-04-08 03:38:00,
2013-04-07 22:40:00,42.3,35.0,29.83,ESE,105,0.0,0.0,75,0.00,,---,0.03,VWS V14.01,2013-04-08 03:40:00,
2013-04-07 22:43:00,42.3,35.0,29.83,ESE,105,0.0,0.0,75,0.00,,---,0.03,VWS V14.01,2013-04-08 03:43:00,
2013-04-07 22:48:00,42.3,35.0,29.83,ESE,105,0.0,0.0,75,0.00,,---,0.03,VWS V14.01,2013-04-08 03:48:00,
2013-04-07 22:49:00,42.3,35.0,29.83,ESE,105,0.0,0.0,75,0.00,,---,0.03,VWS V14.01,2013-04-08 03:49:00,
2013-04-07 22:53:00,42.5,35.2,29.83,ESE,105,0.0,0.0,75,0.00,,---,0.03,VWS V14.01,2013-04-08 03:53:00,
2013-04-07 22:54:00,42.5,35.2,29.83,ESE,105,0.0,0.0,75,0.00,,---,0.03,VWS V14.01,2013-04-08 03:54:00,
2013-04-07 22:59:00,42.5,35.2,29.83,ESE,105,0.0,0.0,75,0.00,,---,0.03,VWS V14.01,2013-04-08 03:59:00,
2013-04-07 23:00:00,42.5,35.2,29.83,ESE,105,0.0,0.0,75,0.00,,---,0.03,VWS V14.01,2013-04-08 04:00:00,
2013-04-07 23:01:00,42.5,35.2,29.83,ESE,105,0.0,1.0,75,0.00,,---,0.03,VWS V14.01,2013-04-08 04:01:00,
2013-04-07 23:07:00,42.3,35.0,29.83,ESE,110,0.0,0.0,75,0.00,,---,0.03,VWS V14.01,2013-04-08 04:07:00,
2013-04-07 23:08:00,42.3,35.0,29.83,ESE,108,0.0,0.0,75,0.00,,---,0.03,VWS V14.01,2013-04-08 04:08:00,
2013-04-07 23:09:00,42.5,35.2,29.83,ESE,108,0.0,0.0,75,0.00,,---,0.03,VWS V14.01,2013-04-08 04:09:00,
2013-04-07 23:10:00,42.5,35.2,29.83,ESE,108,0.0,0.0,75,0.00,,---,0.03,VWS V14.01,2013-04-08 04:10:00,
2013-04-07 23:13:00,42.5,35.2,29.83,ESE,108,0.0,0.0,75,0.00,,---,0.03,VWS V14.01,2013-04-08 04:13:00,
2013-04-07 23:14:00,42.5,35.2,29.82,ESE,112,1.0,1.0,75,0.00,,---,0.03,VWS V14.01,2013-04-08 04:14:00,
2013-04-07 23:15:00,42.5,35.2,29.82,ESE,112,0.0,1.0,75,0.00,,---,0.03,VWS V14.01,2013-04-08 04:15:00,
2013-04-07 23:16:00,42.5,35.2,29.82,ESE,112,0.0,0.0,75,0.00,,---,0.03,VWS V14.01,2013-04-08 04:16:00,
2013-04-07 23:18:00,42.5,34.8,29.82,ESE,112,0.0,0.0,74,0.00,,---,0.03,VWS V14.01,2013-04-08 04:18:00,
2013-04-07 23:20:00,42.5,35.2,29.82,East,94,0.0,1.0,75,0.00,,---,0.03,VWS V14.01,2013-04-08 04:20:00,
2013-04-07 23:23:00,42.6,34.9,29.82,East,94,0.0,0.0,74,0.00,,---,0.03,VWS V14.01,2013-04-08 04:23:00,
2013-04-07 23:24:00,42.6,34.9,29.82,East,94,1.0,1.0,74,0.00,,---,0.03,VWS V14.01,2013-04-08 04:24:00,
2013-04-07 23:25:00,42.6,34.9,29.82,East,94,0.0,1.0,74,0.00,,---,0.03,VWS V14.01,2013-04-08 04:25:00,
2013-04-07 23:28:00,42.6,34.9,29.82,East,94,0.0,0.0,74,0.00,,---,0.03,VWS V14.01,2013-04-08 04:28:00,
2013-04-07 23:30:00,42.6,34.9,29.82,East,94,0.0,1.0,74,0.00,,---,0.03,VWS V14.01,2013-04-08 04:30:00,
2013-04-07 23:31:00,42.6,34.9,29.82,ESE,104,1.0,1.0,74,0.00,,---,0.03,VWS V14.01,2013-04-08 04:31:00,
2013-04-07 23:35:00,42.6,34.9,29.82,East,98,0.0,0.0,74,0.00,,---,0.03,VWS V14.01,2013-04-08 04:35:00,
2013-04-07 23:36:00,42.6,34.9,29.82,East,98,1.0,1.0,74,0.00,,---,0.03,VWS V14.01,2013-04-08 04:36:00,
2013-04-07 23:37:00,42.6,34.9,29.82,SE,125,0.0,1.0,74,0.00,,---,0.03,VWS V14.01,2013-04-08 04:37:00,
2013-04-07 23:38:00,42.6,34.9,29.82,SE,125,0.0,0.0,74,0.00,,---,0.03,VWS V14.01,2013-04-08 04:38:00,
2013-04-07 23:42:00,42.8,35.1,29.82,SE,124,0.0,0.0,74,0.00,,---,0.03,VWS V14.01,2013-04-08 04:42:00,
2013-04-07 23:43:00,42.8,35.1,29.82,East,95,0.0,2.0,74,0.00,,---,0.03,VWS V14.01,2013-04-08 04:43:00,
2013-04-07 23:44:00,42.8,35.1,29.81,East,95,0.0,0.0,74,0.00,,---,0.03,VWS V14.01,2013-04-08 04:44:00,
2013-04-07 23:45:00,42.8,35.1,29.81,East,95,2.0,2.0,74,0.00,,---,0.03,VWS V14.01,2013-04-08 04:45:00,
2013-04-07 23:48:00,42.8,35.1,29.81,East,99,0.0,0.0,74,0.00,,---,0.03,VWS V14.01,2013-04-08 04:48:00,
2013-04-07 23:50:00,42.6,34.9,29.81,East,99,0.0,0.0,74,0.00,,---,0.03,VWS V14.01,2013-04-08 04:50:00,
2013-04-07 23:52:00,42.6,34.9,29.81,East,92,1.0,2.0,74,0.00,,---,0.03,VWS V14.01,2013-04-08 04:52:00,
2013-04-07 23:53:00,42.6,34.9,29.81,East,92,0.0,0.0,74,0.00,,---,0.03,VWS V14.01,2013-04-08 04:53:00,
2013-04-07 23:54:00,42.6,34.9,29.81,East,94,1.0,1.0,74,0.00,,---,0.03,VWS V14.01,2013-04-08 04:54:00,
2013-04-07 23:57:00,42.6,34.9,29.81,East,94,0.0,0.0,74,0.00,,---,0.03,VWS V14.01,2013-04-08 04:57:00,
2013-04-07 23:58:00,42.6,34.9,29.81,East,94,0.0,0.0,74,0.00,,---,0.03,VWS V14.01,2013-04-08 04:58:00,
2013-04-07 23:59:00,42.6,34.9,29.81,East,94,0.0,0.0,74,0.00,,---,0.03,VWS V14.01,2013-04-08 04:59:00,